GFSFLT2_sfc_wetblb_051.txt.gz
Wetbulb
47.33 49.06 50.02 47.64 44.63 49.07 43.67 44.16 42.14 44.67 49.41 54.07 56.41 57.39 59.27 61.85 65.30 66.55 67.78 68.53 68.80 69.62 70.44 71.11 71.46 71.97 72.18 72.47 72.56 72.96 72.46 74.01
45.23 48.18 49.57 48.93 51.35 43.73 44.81 37.31 37.05 42.61 44.82 46.77 53.81 55.43 57.71 59.54 62.59 66.14 68.07 68.95 69.38 69.70 70.39 71.46 71.73 72.47 72.75 73.08 72.60 73.11 73.39 73.83
43.91 44.58 45.55 46.19 45.87 47.93 47.95 45.28 39.75 38.87 43.65 53.11 54.72 57.99 57.93 59.41 61.89 64.60 67.36 68.65 69.54 70.21 71.12 71.48 71.89 72.40 72.56 72.55 72.87 73.01 73.17 73.36
38.52 46.26 47.29 45.63 45.94 47.78 43.73 42.95 45.46 44.91 44.47 53.83 56.68 58.16 59.46 60.03 61.57 64.01 66.86 68.69 69.42 70.26 71.13 71.28 72.07 72.22 72.19 72.56 71.96 72.87 73.40 73.60
35.19 42.28 43.63 42.63 42.93 43.77 45.57 45.78 45.01 41.37 44.07 55.30 56.61 56.84 57.54 57.74 60.00 62.20 66.24 67.83 69.08 69.29 70.43 71.29 71.82 72.44 72.37 72.39 72.04 72.62 73.38 72.71
31.00 34.62 38.05 37.09 39.49 41.03 42.06 44.08 45.39 47.19 48.57 52.22 53.69 55.80 57.40 57.45 58.51 58.10 61.59 66.57 68.34 68.70 70.58 71.84 72.22 72.49 72.84 72.78 72.74 72.88 72.89 72.86
35.31 36.19 36.68 36.12 37.02 39.30 39.11 43.67 43.01 48.39 48.92 53.82 55.86 56.74 57.97 57.08 60.05 62.07 62.29 61.21 66.40 68.46 69.97 70.78 72.12 72.65 72.95 73.50 73.59 73.39 73.27 73.16
32.06 35.99 37.12 35.30 38.60 39.79 40.85 42.11 42.57 44.11 45.72 52.68 58.89 60.51 59.95 61.89 62.88 63.33 64.59 65.80 65.01 64.60 69.49 70.14 71.22 72.01 72.40 73.07 73.34 73.80 73.14 73.21
28.45 36.14 35.93 34.01 39.44 41.00 43.46 45.25 45.81 44.13 49.79 53.62 56.30 59.76 59.26 60.08 60.98 61.53 63.40 64.97 67.00 67.09 64.75 70.33 70.39 72.28 71.88 72.74 73.77 73.44 73.33 73.91
29.23 31.19 26.87 41.63 47.66 46.48 44.92 44.58 46.02 46.93 49.22 51.91 58.73 61.13 61.14 58.02 57.01 60.37 63.02 64.49 66.39 68.48 66.51 68.91 70.44 71.23 72.78 73.09 73.44 73.25 73.33 73.64
27.48 30.92 36.11 42.30 43.11 42.57 43.94 42.33 45.85 45.75 48.22 51.50 57.14 61.77 61.72 56.13 55.25 56.15 61.04 64.11 67.60 70.16 68.21 70.15 71.82 72.87 72.73 72.98 73.27 73.12 73.02 73.43
30.14 28.42 31.29 38.35 42.89 45.97 46.58 40.97 44.19 45.29 46.04 50.01 59.30 57.52 54.29 54.35 56.06 57.43 62.49 65.25 69.09 69.38 69.50 71.17 72.54 72.96 72.21 71.74 72.70 72.59 73.39 74.02
30.00 28.38 33.96 38.61 41.72 47.37 39.42 39.82 44.00 44.33 45.44 48.49 50.25 51.74 53.28 55.61 58.18 60.92 64.40 65.71 70.90 70.41 71.27 72.25 72.98 72.33 72.15 72.33 72.48 73.42 74.01 74.03
31.64 28.72 28.71 40.39 41.70 41.43 43.53 46.95 45.41 45.10 45.91 47.38 48.83 50.92 52.20 55.35 57.86 59.73 61.78 65.83 68.71 70.34 69.62 71.59 72.84 72.66 72.37 72.38 74.57 75.46 75.63 75.23
35.72 35.27 40.52 43.31 42.49 45.41 48.48 47.49 47.00 45.66 46.87 47.28 47.59 48.57 51.42 53.13 55.05 57.96 60.46 64.60 67.93 69.58 70.26 71.71 72.16 72.66 72.05 73.38 74.40 75.12 75.51 75.83
35.69 38.98 40.80 42.78 45.17 47.32 47.73 48.35 48.65 48.34 48.25 48.03 47.12 48.08 49.64 52.49 53.64 54.32 58.08 62.91 67.62 69.17 69.10 69.83 72.20 73.41 74.20 74.74 74.41 74.13 74.27 75.13
36.74 39.21 42.51 43.90 45.00 46.65 47.19 49.04 48.80 48.71 48.75 48.30 48.33 48.29 49.30 51.45 54.10 54.50 55.86 61.11 65.15 66.84 67.76 68.59 70.67 71.14 71.94 73.37 75.40 74.17 73.78 73.41
34.94 39.59 41.23 41.87 44.70 46.71 47.41 47.75 49.06 47.96 47.30 48.78 49.12 48.91 49.99 50.47 54.39 56.08 57.45 60.31 61.24 61.36 65.30 68.05 69.03 68.66 69.24 70.15 70.79 72.40 73.16 73.87
39.78 43.02 43.55 43.99 45.34 46.07 46.23 48.17 49.88 49.21 48.85 48.09 49.23 49.62 49.95 51.06 53.99 55.04 57.55 59.22 59.96 59.62 60.72 63.21 66.79 65.81 65.02 66.43 70.22 69.79 69.22 70.23

GFSFLT2_sfc_wetblb_054.txt.gz
Wetbulb
50.55 52.57 53.27 50.81 47.73 51.63 47.56 48.91 46.15 47.10 48.67 53.70 58.85 60.26 61.83 62.76 65.38 67.93 69.58 70.79 71.51 72.15 72.24 72.30 73.00 74.35 74.71 75.71 75.17 75.85 75.10 77.04
49.48 51.19 52.24 51.37 53.93 46.86 47.56 41.50 41.22 46.18 47.55 47.18 54.87 57.69 60.03 61.48 62.97 65.98 68.98 70.50 71.26 72.33 72.70 72.95 73.13 73.73 74.32 74.59 75.26 75.94 75.45 75.93
46.60 47.05 46.68 48.74 48.23 49.88 50.24 48.07 43.65 43.11 46.74 54.07 54.76 56.89 59.33 61.00 63.07 64.92 67.95 70.07 71.03 72.15 73.31 73.49 73.84 73.68 74.08 74.23 74.53 74.72 76.17 76.33
41.47 48.55 51.27 49.94 49.43 49.91 44.91 45.48 47.90 47.70 47.97 55.71 56.22 56.97 59.49 61.28 63.14 64.70 66.76 69.47 71.16 72.18 73.01 73.30 73.46 73.64 73.48 74.00 73.99 74.66 76.19 77.07
37.98 42.23 46.60 46.06 49.22 50.51 50.15 50.50 47.70 45.46 47.72 56.91 56.65 58.58 59.10 60.15 62.05 64.76 66.16 67.81 70.48 71.68 72.25 72.85 73.50 73.73 73.66 74.06 73.93 74.65 75.84 74.98
35.09 38.42 41.56 40.58 45.04 46.78 47.66 45.53 46.87 48.62 51.20 54.38 56.53 56.83 59.28 60.78 62.05 62.71 64.78 67.50 69.38 70.64 71.61 73.17 74.01 75.30 75.54 74.27 74.62 74.44 74.77 74.63
39.84 39.93 39.89 40.03 40.48 42.55 42.69 46.52 45.59 49.48 50.66 55.25 56.53 57.00 58.75 60.58 61.66 61.87 62.26 63.06 66.59 68.90 71.11 73.87 74.47 75.90 75.81 74.69 75.43 75.45 76.27 74.52
36.33 39.18 38.99 37.54 40.62 42.34 43.22 44.44 46.11 48.59 48.82 57.15 58.34 60.95 62.04 61.61 63.54 64.27 64.82 66.49 66.78 67.60 70.79 72.05 73.26 75.00 75.96 76.16 75.99 76.26 76.86 76.14
33.30 38.24 37.66 35.05 40.34 43.17 44.55 46.37 46.86 45.37 51.43 57.18 57.21 59.59 62.38 63.17 64.18 64.24 65.57 67.17 68.59 69.81 69.85 70.07 72.67 74.26 74.86 76.79 76.72 76.54 77.09 77.25
33.46 36.33 28.14 38.83 44.14 47.02 46.24 47.51 49.60 50.69 52.93 56.34 58.24 62.05 64.57 63.73 62.95 63.75 65.00 65.97 68.14 69.83 70.91 72.43 70.66 72.56 74.78 75.51 77.11 77.19 77.39 77.18
31.98 32.95 36.36 40.46 46.14 46.14 45.71 46.84 51.38 51.75 53.81 55.75 58.31 62.54 64.44 62.91 63.52 64.35 65.12 66.50 68.02 70.01 71.20 72.62 73.58 71.76 73.90 74.53 75.87 76.43 76.83 77.14
34.29 28.47 27.90 37.47 41.24 45.41 48.45 41.48 49.38 50.71 52.50 54.52 58.93 55.89 59.85 61.43 63.32 64.60 65.91 67.58 68.49 70.84 72.56 73.08 73.66 71.05 72.12 73.43 74.41 76.01 76.70 77.16
32.82 30.72 35.98 40.82 40.54 42.58 37.89 42.30 47.43 49.01 51.15 54.55 57.90 56.93 58.52 57.63 58.58 61.03 63.71 67.21 71.08 73.27 72.87 72.73 73.09 71.26 74.23 74.52 74.57 76.13 76.15 76.26
33.78 30.77 29.40 42.64 38.69 37.81 43.20 48.36 47.62 48.11 49.76 49.99 53.30 54.00 53.37 53.73 54.35 56.53 61.65 67.98 72.31 72.54 72.81 72.82 73.56 73.60 75.21 75.69 76.15 77.00 77.09 76.97
36.88 38.30 42.48 43.30 41.17 44.27 47.89 46.91 48.37 47.98 48.85 48.68 49.23 49.79 51.05 52.59 54.09 54.52 59.95 64.23 70.21 71.75 72.87 73.60 74.19 74.67 74.00 77.13 77.42 77.27 77.38 77.70
36.93 41.70 40.78 42.79 44.47 45.22 47.53 48.12 49.77 49.54 48.61 49.80 48.73 49.95 50.53 51.29 53.94 55.12 58.25 57.69 62.61 69.42 70.33 71.99 74.40 75.00 75.54 76.39 76.67 76.53 76.22 76.48
36.59 39.62 40.08 42.68 43.73 45.45 47.58 49.31 49.51 50.00 48.89 49.08 49.47 49.79 50.04 50.90 53.76 56.31 57.96 59.37 59.52 60.58 67.31 68.14 70.26 71.38 72.73 74.78 76.34 75.69 76.05 76.43
34.31 38.71 40.34 41.46 44.90 46.23 46.85 47.79 49.59 49.26 48.91 49.94 50.36 50.26 50.75 51.02 53.95 57.24 58.30 58.60 59.21 60.39 61.79 64.62 66.02 68.85 70.88 73.49 74.19 75.46 74.69 75.07
38.62 42.10 42.86 43.46 44.96 46.12 45.54 47.83 49.13 49.17 50.74 49.44 50.47 51.57 51.60 51.54 54.71 57.60 58.86 59.23 60.31 60.67 60.40 62.89 63.99 64.69 67.48 70.35 72.93 73.74 73.83 75.55

GFSFLT2_sfc_wetblb_057.txt.gz
Wetbulb
51.58 52.55 53.12 51.64 49.07 52.69 48.94 50.49 47.79 48.53 50.13 54.00 59.99 61.51 64.16 63.96 66.59 67.53 70.03 70.87 71.51 71.76 71.75 72.89 73.78 75.14 75.33 76.37 77.36 77.86 76.45 77.76
49.76 52.15 53.08 51.87 54.56 48.06 48.41 43.14 43.02 48.01 49.69 48.46 52.91 57.18 61.09 62.67 64.34 66.67 70.08 70.78 71.64 72.45 72.56 72.77 73.35 74.13 75.67 76.72 77.09 77.14 77.32 78.10
48.75 48.44 47.90 49.24 48.91 50.88 51.29 48.86 44.64 44.77 48.69 56.47 55.29 55.60 58.73 61.60 64.11 65.83 68.50 69.93 71.23 72.76 73.54 73.70 73.98 73.95 74.41 75.35 76.50 76.63 77.42 77.76
44.49 49.85 51.17 50.22 48.93 48.77 47.01 47.17 49.06 48.68 49.43 57.54 57.68 57.21 58.50 61.35 63.27 64.77 66.71 69.19 70.99 71.75 73.16 73.82 73.89 73.99 74.40 74.56 74.44 76.05 77.20 78.01
40.72 44.91 47.71 46.59 49.45 50.62 50.46 50.42 48.71 46.40 48.44 58.09 58.22 58.07 59.03 59.40 61.22 64.15 65.70 67.71 70.17 71.00 72.03 73.47 73.95 74.73 74.12 74.59 74.49 75.29 76.83 76.66
38.07 41.33 44.12 44.07 46.33 49.05 49.22 46.08 47.22 48.79 51.54 55.39 57.09 57.07 58.81 60.38 61.83 63.48 65.93 67.50 68.31 70.36 71.88 73.23 74.91 76.27 76.28 74.87 75.00 74.96 75.32 75.53
42.03 42.94 42.85 42.37 43.83 46.63 47.02 49.01 46.75 50.26 51.05 55.10 57.36 58.47 59.83 61.01 62.27 62.97 63.98 65.62 67.78 69.19 73.07 76.03 76.15 77.16 77.07 75.88 76.69 76.07 76.27 76.01
39.50 42.03 41.82 40.15 42.10 43.44 45.40 46.79 47.58 48.85 49.45 56.18 57.80 60.13 60.92 60.44 62.20 62.20 63.44 64.47 65.57 69.08 70.91 72.51 74.14 76.90 77.55 77.19 77.20 76.97 77.23 76.26
36.27 40.86 40.52 37.26 40.78 41.80 43.45 46.04 46.63 45.12 51.04 55.70 56.39 57.35 60.78 62.25 63.58 64.08 65.70 66.71 67.97 69.10 68.99 70.98 72.69 75.31 76.58 77.64 77.88 77.94 77.75 77.89
35.81 37.55 29.82 41.28 45.37 44.89 43.97 45.47 48.69 49.77 51.48 53.87 55.76 57.96 60.14 66.37 65.45 65.74 66.72 67.51 68.77 69.85 70.83 71.75 71.90 73.31 74.92 76.68 78.27 77.99 77.89 78.71
33.42 33.87 38.57 40.76 44.77 45.15 40.57 44.41 50.66 50.29 51.83 53.40 55.61 57.29 58.82 63.90 66.27 66.78 68.10 68.98 69.71 70.62 71.10 72.48 73.18 73.21 73.55 75.52 78.21 77.77 78.48 78.06
35.57 31.32 28.65 39.76 45.98 46.71 47.74 42.09 52.36 54.28 52.51 53.38 54.60 52.36 55.98 62.87 64.26 65.34 67.18 69.16 70.33 71.65 72.36 72.66 73.45 74.05 73.81 72.76 76.35 77.51 78.12 78.26
34.66 33.25 37.20 45.13 45.83 46.71 36.88 41.00 45.60 52.58 54.56 55.74 55.05 58.00 59.47 60.02 60.59 62.65 64.58 67.68 69.68 72.67 73.00 73.95 75.16 74.70 74.82 73.91 75.22 77.71 79.00 79.54
36.04 32.80 30.22 46.57 45.46 38.93 42.39 42.50 42.81 49.69 51.67 52.88 55.24 55.57 55.90 57.14 56.59 58.15 61.39 61.79 65.55 71.80 74.55 75.22 75.66 75.59 76.50 75.70 76.41 79.19 79.20 79.27
38.98 38.36 45.54 45.97 45.03 48.41 46.03 42.88 43.60 49.21 50.20 51.22 52.11 53.04 52.11 52.70 55.16 56.96 58.18 58.50 61.97 67.86 75.25 76.12 76.11 75.57 76.38 76.31 79.50 79.55 79.43 79.28
38.97 42.29 41.71 42.93 45.42 45.41 44.83 43.70 46.75 50.32 50.60 50.50 50.50 52.72 50.98 53.64 54.35 57.00 57.54 57.88 60.05 63.56 67.06 71.72 73.58 75.04 77.49 78.30 79.87 79.69 79.18 79.05
36.97 39.77 40.40 42.71 43.97 44.20 44.98 47.64 49.92 51.13 50.51 50.02 50.03 51.73 51.05 51.65 53.56 57.44 58.11 58.38 59.12 59.74 61.40 63.43 66.25 68.18 70.77 73.90 78.51 77.09 78.26 77.91
34.28 39.37 39.10 40.55 43.39 44.81 44.66 47.73 48.93 49.29 49.85 50.64 51.06 51.52 52.20 52.30 54.58 58.27 57.51 58.58 57.98 58.07 59.14 60.13 61.31 61.99 65.02 67.91 73.92 76.42 75.43 76.06
39.04 41.83 42.52 43.46 44.60 44.90 45.22 47.89 48.36 47.87 48.57 50.06 51.15 52.13 52.36 53.33 56.80 56.93 57.76 57.32 58.10 58.12 58.66 59.73 61.01 61.17 62.49 65.01 67.59 75.52 75.78 75.93

GFSFLT2_sfc_wetblb_060.txt.gz
Wetbulb
51.87 51.73 52.02 50.50 48.25 51.27 46.99 48.56 46.18 48.27 50.53 53.11 55.65 58.67 64.22 64.28 66.21 65.01 64.14 66.33 70.64 71.47 71.71 72.21 72.39 72.35 73.36 74.04 74.46 75.24 74.79 75.50
50.31 52.06 51.97 50.12 52.54 47.32 48.40 41.38 41.23 46.29 49.49 49.08 53.29 55.90 60.92 63.32 63.09 63.91 64.88 64.18 67.51 71.72 71.83 72.88 73.12 73.71 73.71 75.02 74.88 75.67 75.76 75.84
48.14 48.06 46.99 48.22 47.57 48.99 49.42 48.79 43.68 42.66 47.25 56.77 57.66 56.71 59.02 64.02 64.58 63.26 64.36 66.12 66.92 68.84 72.48 72.66 73.55 73.95 73.83 73.96 75.56 75.99 76.35 75.79
43.72 49.07 50.75 50.13 48.54 48.53 45.59 45.29 48.11 47.46 47.50 57.12 58.39 58.48 58.47 59.59 63.13 66.98 67.01 66.74 66.31 65.20 67.20 72.65 72.76 73.50 74.18 74.09 74.65 75.85 76.47 76.21
40.26 44.64 47.77 46.74 48.03 48.84 48.46 48.17 46.73 45.58 47.32 56.35 58.22 59.64 59.80 58.97 59.88 67.39 65.20 65.31 65.06 66.23 68.69 72.36 72.66 73.36 73.80 74.32 74.47 76.04 76.52 76.02
37.34 41.76 44.12 42.99 45.51 46.74 46.64 44.19 44.90 46.41 49.45 55.15 56.74 57.86 59.11 59.95 61.96 63.05 67.15 66.45 67.07 68.92 71.71 73.30 73.30 73.50 73.81 74.08 74.86 75.06 75.98 75.81
41.36 42.50 43.02 42.92 43.29 44.49 44.40 46.88 45.24 47.71 48.98 53.19 56.14 57.27 58.67 61.50 63.09 63.29 63.97 66.95 66.74 69.78 70.96 72.90 73.97 74.19 74.61 74.88 74.55 75.11 75.00 74.99
39.19 42.73 42.78 41.21 43.00 43.53 44.26 45.99 47.11 48.87 49.38 55.53 56.73 59.28 58.71 60.50 61.59 64.20 65.05 64.34 67.96 69.72 71.50 71.60 74.61 74.86 75.00 74.94 75.23 75.46 74.68 74.83
34.95 41.23 41.08 37.52 41.57 42.52 43.72 45.65 46.53 45.05 50.28 54.01 53.70 55.93 59.08 60.36 60.99 62.52 67.07 67.38 68.49 70.04 71.11 67.85 67.42 70.93 75.52 75.75 76.02 75.63 75.43 75.47
35.08 37.60 28.87 41.73 46.69 45.80 43.94 45.06 46.15 46.79 48.75 50.75 52.59 55.21 57.87 59.94 61.87 60.86 65.75 68.03 69.11 68.82 70.19 70.95 68.36 68.99 76.38 76.86 76.46 76.54 75.46 76.13
32.26 32.53 37.26 40.67 44.49 45.05 44.53 43.55 47.63 49.08 51.30 53.53 53.30 53.46 55.50 61.03 63.46 62.18 61.02 64.64 69.05 69.79 70.52 72.54 72.98 73.35 74.80 76.56 76.16 75.75 76.60 75.65
35.85 30.25 28.41 39.68 45.01 48.36 47.64 39.55 49.45 49.37 48.58 49.74 54.07 49.79 52.02 58.80 61.13 61.21 62.01 64.50 67.28 69.23 70.41 71.74 72.79 73.62 73.31 73.71 76.91 75.43 75.33 77.14
35.17 32.60 36.86 43.66 46.35 48.08 36.29 39.24 47.59 48.62 48.27 47.62 49.59 52.47 56.43 58.51 58.31 59.36 60.35 62.33 64.05 65.76 68.65 71.44 74.99 74.64 73.12 73.45 73.51 77.39 77.16 76.83
36.61 32.81 30.00 47.11 45.96 39.99 44.92 48.16 48.24 47.26 48.36 47.14 50.12 53.17 55.47 55.70 56.53 57.15 58.57 59.03 60.77 62.70 67.51 73.63 76.36 76.15 74.04 73.85 74.69 76.98 78.37 77.38
36.87 38.01 46.08 46.84 45.41 47.93 47.84 47.07 47.60 47.02 47.93 47.64 47.93 51.94 53.52 53.73 55.18 56.81 57.87 58.42 59.32 60.58 63.66 65.88 69.01 73.22 75.49 76.21 76.98 76.55 79.26 77.37
37.14 43.03 40.88 44.49 46.94 46.82 46.24 46.29 47.51 48.26 46.86 46.50 48.53 51.65 52.47 53.76 54.45 54.39 57.98 58.22 58.17 59.15 58.88 60.95 63.37 67.04 70.30 72.00 77.26 77.82 76.04 77.88
36.95 39.82 40.19 43.44 43.17 43.52 44.87 45.95 46.49 46.90 49.25 50.15 50.81 51.55 52.16 53.28 54.26 54.51 57.46 58.02 58.96 58.58 57.50 57.90 60.27 64.21 65.91 67.99 70.80 76.46 77.78 77.91
34.25 39.40 38.69 39.26 43.48 44.47 42.59 43.26 45.03 48.19 48.66 51.02 51.57 51.35 52.83 52.92 53.79 56.47 56.85 57.29 58.52 57.68 57.20 57.84 58.98 60.15 62.60 64.89 66.15 71.01 78.02 77.78
38.22 40.75 42.20 43.11 43.59 44.28 43.01 44.83 47.11 47.03 48.49 50.32 51.36 52.07 52.70 53.15 54.93 55.32 55.56 55.95 56.77 57.87 57.41 57.88 58.04 57.88 60.09 62.73 63.74 66.65 71.32 77.64

GFSFLT2_sfc_wetblb_063.txt.gz
Wetbulb
48.89 48.58 48.46 45.04 41.48 45.32 39.19 41.49 37.04 41.36 44.96 49.31 50.95 60.92 63.03 62.03 61.42 62.28 66.28 66.15 67.04 68.36 68.48 68.26 68.93 69.39 70.26 70.46 70.44 71.90 71.82 70.29
46.58 47.58 47.76 44.66 46.25 39.06 39.32 32.48 31.73 39.15 41.35 43.32 47.92 49.38 60.41 60.02 61.29 64.20 65.51 66.82 66.83 66.91 68.54 68.90 69.50 70.02 70.45 71.34 70.91 72.01 72.27 71.72
43.07 40.72 41.19 42.67 40.21 40.61 40.25 38.66 35.15 34.41 39.51 48.58 50.23 51.83 58.65 60.28 62.88 64.39 62.91 64.61 66.33 67.36 66.45 66.94 67.84 70.02 70.56 71.45 71.18 71.61 71.86 72.87
37.57 44.15 45.97 44.07 41.15 40.84 36.33 35.91 38.91 39.45 41.57 52.49 51.87 54.00 56.99 62.37 63.89 64.79 62.79 64.09 66.11 66.25 65.17 65.40 64.51 69.99 70.22 71.38 71.76 72.25 72.74 72.34
34.11 37.84 41.66 40.34 42.78 42.72 40.81 38.87 37.07 35.67 40.53 52.51 54.20 54.25 55.89 57.65 61.20 64.53 64.42 65.38 64.99 65.02 65.88 66.41 65.59 66.28 70.88 70.99 72.48 73.06 73.39 72.68
28.30 33.80 38.62 37.28 40.19 41.86 39.21 33.84 35.87 38.29 41.44 46.84 51.36 52.37 54.64 56.60 61.67 63.43 63.65 64.30 64.14 64.09 63.17 63.84 65.75 66.55 70.70 71.16 71.96 73.53 73.67 73.73
36.56 39.20 39.82 39.19 39.22 40.65 38.76 38.35 33.76 39.35 41.88 45.87 49.45 51.40 54.16 57.46 61.30 62.48 63.27 64.57 64.14 63.94 63.52 67.05 66.80 68.20 70.54 71.72 71.78 72.76 73.77 73.66
35.48 39.78 39.59 38.19 40.61 41.52 41.14 41.38 40.78 41.61 41.98 49.01 50.95 51.79 53.23 55.38 58.38 60.11 62.18 61.18 64.50 65.49 64.71 67.28 66.35 66.17 70.08 71.50 72.15 72.32 72.97 73.47
29.66 37.68 38.12 33.33 38.82 40.25 41.25 41.86 40.60 37.29 41.79 48.46 49.46 49.95 52.25 58.57 60.21 60.08 60.23 60.77 61.81 65.25 65.46 66.02 67.27 69.53 68.46 70.11 72.11 72.38 72.15 73.23
29.30 32.60 25.49 36.60 43.54 44.68 42.74 44.41 45.13 44.21 46.97 47.69 48.55 52.25 54.43 56.72 57.48 58.25 59.54 60.56 61.88 63.42 63.80 65.89 66.96 68.48 69.54 69.19 69.22 70.00 71.59 71.99
28.04 27.82 33.54 37.35 40.66 41.88 39.37 40.41 45.99 45.10 46.63 47.30 49.68 52.35 52.15 54.77 56.60 56.51 57.49 59.63 60.75 61.86 63.06 64.39 67.12 66.61 68.24 68.26 68.52 68.59 71.23 72.19
32.64 26.29 24.63 34.90 44.18 46.19 44.55 33.98 45.35 44.96 44.69 45.89 47.96 43.97 46.80 52.08 55.10 55.96 57.83 59.02 58.38 60.21 62.33 63.65 66.59 69.07 68.81 67.60 68.89 68.76 72.59 73.23
32.17 30.05 33.25 41.76 45.61 46.24 33.29 34.25 44.90 45.14 44.15 44.74 43.30 45.84 48.94 53.10 53.12 56.12 57.12 57.84 59.09 60.07 59.86 62.65 66.18 66.75 71.51 69.72 70.12 70.88 74.03 73.86
33.53 29.53 27.32 43.36 44.32 37.53 40.68 43.36 44.31 44.58 44.58 43.86 45.84 47.57 49.41 51.42 52.64 53.94 55.17 57.82 58.41 57.94 59.48 61.50 63.23 63.65 65.18 68.21 69.97 71.87 72.97 73.37
35.52 34.58 40.34 42.19 41.81 44.16 43.61 41.88 42.84 42.66 44.09 44.81 45.07 46.09 48.33 49.71 51.27 53.48 55.33 57.17 57.44 57.47 58.21 59.26 59.90 60.49 62.31 63.62 65.41 67.15 71.68 73.83
34.56 39.93 38.91 40.30 43.08 43.65 43.38 42.90 43.61 43.80 44.70 44.98 45.43 47.31 48.72 49.80 50.46 53.41 54.96 56.75 57.68 56.57 56.70 57.10 58.57 59.20 59.92 61.70 63.01 63.92 68.36 72.65
35.38 38.71 38.29 41.47 41.10 43.29 43.51 43.76 42.89 44.42 44.82 46.51 48.00 49.11 49.00 48.97 50.60 53.40 53.16 56.88 57.08 57.31 56.77 56.83 57.78 58.06 58.75 59.28 61.57 62.11 65.41 72.82
32.88 38.33 38.29 38.42 41.75 44.04 42.94 42.02 43.34 44.22 45.61 47.30 48.38 48.16 49.97 50.59 51.20 53.77 55.60 55.87 55.44 56.93 56.69 56.34 57.15 56.67 57.22 57.67 58.90 60.58 62.39 69.43
38.76 41.30 41.49 42.55 43.73 43.85 42.33 43.60 44.13 44.84 45.88 46.03 48.05 50.32 51.71 51.72 51.23 54.66 55.48 54.05 54.64 55.74 55.48 55.28 56.01 54.51 55.01 56.31 57.83 59.46 60.31 63.54

GFSFLT2_sfc_wetblb_066.txt.gz
Wetbulb
46.13 44.95 43.55 40.95 38.79 41.80 36.23 34.30 34.36 37.14 41.98 47.32 49.23 56.33 59.74 60.68 62.12 63.14 64.59 63.99 66.75 66.39 66.79 67.41 67.61 67.55 68.41 70.24 69.75 69.68 69.59 69.71
44.55 45.01 44.20 40.07 43.47 37.22 35.18 29.85 29.00 35.37 37.42 39.88 47.52 52.43 58.80 58.61 61.10 62.57 63.74 65.70 67.25 66.73 66.77 67.31 68.48 68.38 68.67 69.73 70.20 70.46 69.95 69.55
40.15 37.11 36.18 37.97 36.35 36.34 35.90 35.64 31.34 30.63 35.97 44.80 49.36 51.89 54.11 58.80 61.50 61.42 64.20 65.30 66.19 66.78 67.37 67.18 68.51 69.04 68.85 68.84 69.43 70.63 70.98 70.37
34.18 41.41 42.69 40.06 36.07 33.81 31.12 32.40 33.94 35.03 37.12 50.61 51.39 52.10 54.32 59.48 60.85 62.62 64.97 65.48 66.31 67.02 66.90 66.71 66.81 68.61 68.80 69.57 69.38 69.68 71.24 70.94
32.28 34.46 38.26 36.56 38.35 35.15 33.79 32.03 32.64 32.72 35.78 49.68 51.84 52.63 56.74 59.24 61.22 62.86 63.42 62.73 62.30 63.65 65.45 66.85 66.86 67.88 68.75 69.58 70.01 70.39 70.94 70.95
26.19 29.79 34.48 33.93 37.72 38.81 32.32 28.04 30.87 32.90 36.80 42.27 46.65 49.55 55.37 58.60 60.77 62.00 63.78 64.36 63.84 64.58 65.46 65.68 65.19 64.70 66.06 69.27 70.82 70.87 70.77 70.80
31.71 36.99 37.81 37.06 37.27 38.65 35.24 33.69 30.21 35.44 36.83 41.28 46.19 52.23 57.26 59.08 60.15 60.75 60.81 62.72 63.79 64.53 65.23 65.39 65.82 65.87 66.04 68.01 70.45 71.50 70.79 70.97
32.56 38.37 38.32 36.39 38.87 39.39 39.54 39.26 38.01 38.00 36.12 46.08 49.66 53.96 55.48 56.73 57.54 57.92 59.41 60.85 61.74 62.21 62.85 64.18 65.55 66.76 67.30 68.27 69.25 71.92 71.41 71.19
25.08 34.91 35.27 31.08 35.35 37.71 39.08 41.52 40.84 33.63 40.63 45.98 46.48 50.44 52.16 53.13 54.46 55.19 57.86 60.83 61.41 61.24 61.77 62.70 65.52 66.37 67.29 67.30 68.75 70.37 71.89 72.25
26.78 29.96 22.58 32.76 39.92 40.91 41.56 42.44 43.43 43.69 44.63 45.84 46.19 48.62 49.98 52.51 53.09 54.64 56.31 57.17 58.10 60.09 61.73 63.35 65.19 68.00 68.46 69.69 69.52 68.89 69.57 72.25
26.32 25.92 30.95 35.93 38.75 39.39 37.18 37.97 43.26 41.66 43.10 45.66 46.41 49.62 48.47 50.11 53.52 54.52 56.23 57.94 58.66 59.94 61.30 62.64 65.12 66.54 69.30 69.10 66.28 65.87 67.32 69.04
30.90 24.77 23.63 32.38 40.89 45.06 41.71 32.47 43.54 43.43 42.33 42.65 44.92 39.98 44.31 48.15 51.00 53.65 56.44 58.07 57.70 58.80 60.80 62.12 63.31 64.02 66.75 67.89 66.84 65.21 67.76 68.89
29.38 27.37 32.91 39.83 41.97 44.45 31.41 31.73 41.44 42.76 41.99 41.86 39.90 43.04 46.04 47.97 49.37 53.12 55.17 57.51 58.23 57.63 59.28 59.97 61.55 61.26 63.48 65.05 66.61 67.10 68.24 70.29
32.69 27.24 26.00 41.46 41.47 36.32 39.49 40.63 40.90 41.06 41.04 40.90 42.49 44.26 45.47 46.78 48.01 49.82 54.07 56.49 57.22 56.03 56.32 59.41 59.80 59.35 60.12 61.43 62.16 64.11 64.39 66.32
32.23 35.35 40.96 40.88 39.20 42.32 41.15 39.10 39.59 39.74 41.39 41.30 42.66 43.16 44.76 45.90 47.48 49.10 52.53 54.68 56.97 55.89 55.27 56.50 58.31 58.39 58.30 58.88 60.29 61.31 62.80 64.50
31.00 36.95 38.50 38.42 40.65 40.86 41.81 41.32 42.77 43.05 42.37 42.72 41.98 43.62 46.06 47.48 48.17 48.31 50.82 52.23 56.10 55.71 56.62 56.42 57.00 57.72 57.92 57.85 58.44 58.83 60.11 61.80
31.26 34.80 37.01 39.78 40.72 40.98 41.73 43.58 43.46 43.39 42.89 42.98 45.19 44.78 46.18 46.25 48.20 48.90 50.69 51.84 54.58 54.42 54.46 55.57 56.02 56.84 56.44 56.41 57.09 57.03 58.90 60.54
28.47 35.12 36.08 38.09 41.03 42.08 41.50 40.79 42.41 43.08 43.07 44.19 45.59 45.11 46.26 46.38 50.05 49.46 50.85 52.37 52.48 55.27 54.13 53.03 53.36 54.21 54.17 53.81 54.38 54.87 57.55 59.17
35.52 38.92 39.30 40.04 42.06 43.40 41.92 42.53 43.41 43.46 44.16 44.14 45.08 46.91 47.06 47.93 49.82 50.96 51.93 53.30 50.77 53.22 51.62 49.87 50.59 51.46 51.91 52.41 53.06 53.96 55.88 57.31

GFSFLT2_sfc_wetblb_069.txt.gz
Wetbulb
44.61 43.53 41.82 38.83 36.32 38.61 33.60 31.08 33.39 35.38 39.99 45.18 51.69 53.77 57.67 60.19 62.50 63.80 64.24 64.90 66.18 65.22 65.38 66.20 66.67 66.76 68.12 68.56 68.43 68.63 69.12 69.15
42.65 43.43 42.93 39.17 40.07 35.03 34.28 29.03 28.12 33.44 35.19 37.98 46.50 49.33 56.85 57.15 60.64 63.03 64.54 63.95 65.03 65.84 65.32 66.46 66.90 67.46 68.43 69.11 68.66 68.90 69.16 69.40
38.29 36.69 35.77 36.09 33.71 32.25 32.96 32.56 29.52 29.47 34.10 45.80 47.49 49.37 50.71 55.70 59.02 60.72 62.36 63.68 64.54 65.93 66.01 66.56 67.30 67.20 67.50 68.82 68.76 68.80 68.91 69.23
32.71 38.89 41.07 38.06 33.65 30.42 28.15 28.53 30.65 32.06 35.18 45.94 46.48 50.54 56.77 58.77 60.47 61.06 63.11 64.02 65.31 65.77 65.65 65.78 66.34 66.95 66.71 67.88 68.94 69.00 69.24 69.06
28.23 33.39 36.55 34.59 35.72 32.39 29.95 28.15 27.45 28.52 32.77 46.53 48.58 56.09 57.27 57.73 59.87 61.73 62.84 62.62 62.97 64.47 64.84 65.43 65.52 66.36 66.72 67.14 68.18 69.41 69.68 69.31
27.88 28.07 32.43 32.30 35.87 35.96 30.80 27.22 28.61 29.46 32.78 42.77 49.25 54.15 55.09 55.79 57.84 59.49 60.85 62.44 63.47 63.85 64.13 64.18 65.61 65.74 65.37 67.65 68.40 68.46 69.56 69.78
31.61 36.75 36.43 35.60 36.22 37.14 32.83 32.38 29.61 33.40 33.68 41.61 45.24 51.26 53.00 53.87 55.97 58.02 59.11 59.85 60.38 60.68 62.00 64.31 65.20 65.08 65.19 66.13 68.76 69.28 68.70 69.20
31.56 36.61 36.47 33.99 36.78 37.53 37.69 37.30 36.13 37.82 35.14 44.07 46.96 51.43 51.06 51.87 53.35 54.87 56.08 57.24 58.66 60.69 61.68 62.49 63.50 65.84 66.51 67.13 67.10 69.78 69.34 68.92
24.58 33.00 33.21 28.66 34.40 35.71 38.62 41.22 39.39 34.17 38.99 44.53 44.27 47.33 47.56 50.18 51.61 53.02 55.28 56.23 57.16 58.39 60.75 62.15 63.39 65.97 66.50 67.58 67.71 68.18 69.72 69.74
25.17 28.10 21.01 31.49 37.64 40.12 40.61 41.06 41.80 41.01 42.00 43.81 44.31 45.66 47.25 47.20 47.58 51.84 54.90 55.62 56.71 58.08 59.13 61.18 63.58 64.84 65.62 67.83 68.06 68.35 68.95 70.23
25.19 24.23 28.97 34.56 37.60 37.06 35.59 37.12 42.13 40.37 42.05 42.87 44.07 46.10 46.72 47.02 47.80 48.79 53.03 55.87 56.79 57.89 59.11 61.16 62.39 62.36 65.19 68.50 67.54 65.15 66.71 67.89
26.91 22.91 23.06 31.10 39.93 42.97 40.72 32.41 41.79 41.85 40.96 40.77 42.16 37.93 44.21 45.12 46.54 47.57 49.64 54.28 57.17 57.18 58.69 59.31 59.37 60.44 63.00 64.51 64.51 64.37 66.26 67.90
26.07 23.86 29.90 38.48 39.78 42.56 29.78 30.51 40.19 41.26 40.29 39.59 37.33 40.29 42.73 45.29 45.43 46.94 48.60 51.13 56.83 57.36 57.33 57.45 59.55 59.86 60.26 61.46 60.54 62.13 64.43 64.60
30.82 26.23 23.72 40.09 39.00 34.55 37.45 37.45 39.08 39.95 39.88 39.63 40.46 41.63 42.83 44.34 44.20 46.18 47.25 49.39 55.08 55.91 57.28 57.25 58.66 58.16 57.91 58.07 59.92 61.58 62.43 63.66
31.59 30.28 37.87 38.93 37.02 39.31 39.82 38.08 37.93 38.27 39.63 40.28 41.27 41.47 42.38 43.01 44.02 47.06 48.01 48.78 52.62 55.34 56.45 56.99 57.48 57.41 55.91 57.17 57.69 58.58 60.21 61.26
29.88 32.28 34.86 38.35 39.48 39.77 39.51 39.53 41.02 41.30 41.19 41.89 40.84 41.46 41.40 44.17 45.98 46.47 47.71 48.55 51.11 53.83 54.25 55.95 56.01 56.46 55.63 56.33 55.62 55.74 57.43 59.73
28.99 32.74 34.64 38.08 39.59 39.43 40.51 41.88 41.72 42.39 42.51 42.34 41.88 40.94 42.11 43.46 44.18 45.90 47.20 48.96 50.79 52.19 55.06 55.72 54.17 54.88 54.86 54.62 54.10 53.31 54.25 57.85
26.95 32.82 33.32 34.12 38.35 40.63 40.94 41.28 41.65 42.77 42.59 43.85 43.92 43.13 44.54 44.13 45.38 45.92 46.70 49.27 51.20 53.46 54.39 52.75 50.04 50.58 51.55 51.20 51.42 51.89 52.69 54.85
34.31 36.14 37.22 38.30 39.99 41.34 41.81 43.09 43.29 43.20 43.62 42.90 43.86 44.28 44.73 45.18 46.81 49.03 49.16 49.79 52.89 53.98 52.23 50.92 47.74 47.98 48.95 48.88 49.82 49.96 51.15 53.36

GFSFLT2_sfc_wetblb_072.txt.gz
Wetbulb
42.92 42.01 40.52 38.33 35.22 37.31 32.34 29.82 32.17 34.50 38.77 44.57 49.70 51.77 54.26 57.73 61.12 62.13 64.72 65.37 65.61 64.43 65.61 65.80 66.22 66.26 67.32 67.51 67.85 68.04 68.87 69.27
41.22 42.11 41.44 38.46 38.27 34.90 33.85 29.03 27.89 32.91 35.74 37.41 42.50 45.54 53.49 57.24 58.69 60.06 64.12 64.28 65.15 65.24 65.08 66.14 66.49 66.49 67.72 68.51 68.03 68.31 68.80 69.19
37.26 34.50 32.45 34.96 32.60 31.58 32.66 31.32 29.56 28.72 34.52 43.43 42.46 48.86 54.15 55.93 58.31 60.90 61.12 64.12 64.41 65.78 65.02 66.17 66.87 66.75 66.81 68.29 68.34 68.25 68.94 69.29
29.80 37.19 38.85 35.84 32.32 29.31 30.85 29.46 28.97 31.31 33.32 48.29 52.92 54.30 54.52 56.20 58.26 60.57 62.34 63.21 64.72 65.73 65.26 65.54 65.63 66.23 66.61 67.65 68.41 68.69 68.86 69.12
27.49 32.12 35.37 34.03 34.75 29.75 28.48 27.97 27.06 30.55 32.98 47.63 50.63 52.39 52.63 54.73 57.80 58.67 59.93 61.24 63.09 64.34 65.11 65.86 66.23 66.45 66.40 67.27 68.48 69.01 68.87 69.12
25.81 27.91 31.47 32.21 35.56 35.29 29.45 27.76 27.58 29.32 33.08 41.46 47.31 49.73 50.21 52.17 55.64 56.41 57.63 59.01 60.05 60.92 62.39 64.87 66.33 67.06 67.36 67.04 67.87 69.00 69.08 68.87
32.90 35.38 35.53 34.76 35.06 35.88 32.08 31.96 29.47 32.17 35.61 41.04 45.78 48.99 49.35 51.17 52.87 54.48 55.82 56.85 58.34 59.73 61.45 62.92 64.42 66.35 67.10 67.30 67.85 68.44 69.04 69.16
30.36 35.63 34.95 33.42 35.82 36.70 36.24 36.61 34.75 36.09 36.98 43.86 46.80 48.68 47.97 48.21 49.89 51.29 53.74 55.87 57.12 58.59 59.91 61.07 63.43 65.21 66.91 67.54 67.80 68.84 68.53 68.55
24.38 31.62 31.55 28.61 32.67 34.97 38.45 40.33 39.37 34.24 39.18 43.71 42.78 46.15 44.91 45.27 46.03 47.45 49.39 53.12 55.84 56.96 58.03 59.88 61.48 63.74 63.86 65.93 68.23 68.22 69.08 68.96
25.22 26.20 21.10 29.36 36.80 38.68 39.85 40.77 41.60 40.64 41.66 42.50 42.76 44.12 46.53 45.90 44.82 45.17 46.61 48.39 52.01 56.28 57.34 58.91 61.37 61.46 62.10 66.71 68.97 68.13 68.12 69.25
24.45 22.57 27.34 33.90 37.87 38.07 36.73 36.53 41.80 40.42 41.58 42.01 42.74 43.98 45.41 45.73 45.78 45.46 46.41 47.67 49.88 53.68 57.69 58.91 59.68 60.40 61.05 64.59 65.10 65.98 66.20 67.43
25.11 23.09 22.58 30.35 39.33 41.73 40.44 30.46 41.37 41.46 40.12 39.76 40.24 37.20 43.99 43.77 44.53 45.71 46.14 47.38 48.87 51.03 56.03 57.65 58.04 59.75 59.52 61.96 62.36 62.17 63.50 64.68
25.85 23.01 28.95 37.78 39.51 41.77 29.42 30.63 40.17 41.03 40.27 39.51 37.45 39.40 41.87 43.87 43.65 45.50 45.98 47.04 49.47 50.68 53.29 56.72 58.44 58.90 57.74 59.27 59.56 60.58 62.54 64.05
27.09 24.04 23.48 40.17 38.76 34.26 36.30 38.34 39.79 39.48 40.20 39.47 40.19 41.20 42.34 42.75 42.64 44.09 44.52 46.59 49.36 49.24 50.79 54.96 58.05 58.28 57.24 57.10 59.49 59.58 60.27 61.40
29.35 28.70 36.81 38.88 37.45 39.33 39.66 38.09 39.04 38.82 39.74 40.01 39.91 40.21 41.30 41.51 42.21 43.26 44.14 46.71 48.59 48.61 50.06 53.12 56.55 57.32 56.24 57.03 57.58 56.83 57.84 59.21
29.54 31.07 34.59 38.17 39.11 39.63 40.15 39.30 40.59 40.66 40.66 41.13 40.40 41.81 41.81 41.79 41.98 42.57 43.89 45.86 47.16 47.30 48.86 51.33 55.00 57.33 55.71 56.42 56.04 54.70 55.11 56.56
28.66 32.02 33.44 36.18 39.15 39.95 40.46 41.59 41.40 41.67 42.72 42.65 42.84 42.37 42.85 42.45 42.28 43.08 44.96 45.87 47.08 47.03 47.75 50.41 55.03 55.14 54.15 53.92 52.75 51.52 53.07 54.40
28.56 33.31 33.38 34.04 38.68 40.47 40.11 40.53 41.83 42.66 42.62 43.42 43.76 43.11 43.73 43.49 44.71 45.74 45.38 46.29 46.61 47.06 48.38 50.41 54.33 54.07 51.96 51.84 50.46 50.14 50.24 52.26
33.96 35.12 36.74 38.35 40.02 41.26 40.46 41.01 44.23 43.86 43.78 42.87 43.63 43.79 44.11 44.31 45.71 46.02 46.87 47.89 49.16 49.28 50.01 51.60 52.76 51.06 50.00 49.39 48.70 48.62 48.95 50.46

GFSFLT2_sfc_wetblb_075.txt.gz
Wetbulb
45.69 46.19 46.36 45.88 45.83 47.21 43.79 42.13 44.18 44.94 47.17 50.66 55.55 57.77 58.78 60.11 61.74 63.56 66.74 67.67 69.36 69.79 69.32 69.77 70.14 70.88 71.43 72.00 72.43 72.61 72.91 73.98
44.26 46.04 46.61 46.60 46.07 44.26 45.54 39.59 39.49 41.86 43.98 45.50 52.01 52.96 55.46 57.41 58.79 61.21 64.22 67.48 69.07 70.31 69.27 70.19 70.55 70.94 71.49 72.08 72.44 73.31 73.32 73.48
44.06 41.39 40.08 44.64 43.77 43.23 45.79 43.25 41.86 39.97 42.71 52.88 51.18 52.54 53.80 56.52 58.39 60.06 64.77 66.41 69.02 70.01 70.01 70.37 70.80 70.86 70.94 71.24 71.58 71.74 72.32 73.67
38.59 42.45 43.02 43.07 40.51 40.86 44.21 41.38 41.89 45.05 41.96 52.95 53.98 53.37 53.90 55.43 56.86 59.57 61.71 64.85 67.78 69.04 69.25 69.88 69.93 70.57 70.35 71.38 70.97 71.34 72.46 72.99
37.68 41.53 43.17 41.25 41.79 40.80 40.21 42.87 40.07 42.22 41.58 52.89 54.41 53.95 53.27 53.69 55.84 57.19 59.38 61.23 62.74 64.60 66.42 68.52 69.35 70.18 70.24 70.54 71.01 71.69 71.91 71.18
38.40 38.41 40.69 39.39 40.29 41.42 41.23 41.93 39.62 41.20 40.88 49.07 51.36 51.60 53.03 53.98 55.26 56.00 56.99 57.83 59.23 60.60 62.45 64.38 66.80 69.28 70.19 70.46 71.12 71.78 71.95 71.84
40.23 40.57 40.55 39.72 39.55 40.10 39.70 40.41 40.14 41.14 42.99 47.61 50.07 51.43 51.91 53.38 54.41 54.12 53.85 55.67 57.06 57.62 59.11 61.50 63.52 65.35 68.09 70.05 70.57 71.11 71.92 71.67
36.63 39.29 39.28 37.95 39.95 40.20 39.89 40.33 40.70 41.38 43.21 49.36 51.15 52.54 51.40 50.67 51.47 51.21 51.71 52.81 54.86 57.06 58.56 58.41 60.74 62.45 63.48 65.88 69.09 70.15 70.09 71.61
33.79 37.34 37.81 35.08 38.93 40.12 41.18 44.09 43.27 40.47 45.23 48.21 47.44 49.11 48.47 47.72 47.99 48.13 49.22 51.09 52.90 54.45 56.71 59.20 59.80 61.41 60.91 62.62 67.44 70.07 70.51 70.82
34.98 35.50 29.08 38.42 43.35 42.05 42.49 44.29 46.01 46.10 46.66 46.68 46.41 47.66 49.07 49.16 49.13 48.69 49.22 49.88 51.39 53.42 55.19 57.80 59.88 60.20 60.40 62.88 65.25 68.52 71.10 70.83
33.74 33.20 34.95 38.14 40.83 41.65 40.88 40.92 45.49 44.94 45.28 46.00 47.02 48.64 48.64 49.68 49.46 49.16 49.76 50.37 51.28 52.95 54.38 56.80 58.91 60.98 61.01 61.04 63.29 62.81 64.95 67.78
35.63 31.01 29.58 38.01 42.80 44.85 45.24 36.91 44.18 45.36 44.09 44.36 46.34 44.00 48.13 48.79 48.89 49.07 49.75 50.69 50.85 52.07 54.00 55.04 57.26 59.65 60.84 60.35 61.89 62.56 61.26 62.47
35.16 33.81 36.41 41.18 43.62 45.47 35.25 38.00 44.47 44.70 44.41 44.18 43.48 45.52 47.29 48.43 48.67 49.35 49.17 49.71 50.69 51.75 53.02 54.09 55.96 58.43 59.08 60.53 59.99 60.89 61.75 61.26
35.63 33.46 30.84 44.14 42.83 39.07 42.39 44.17 44.20 43.98 43.87 43.52 44.87 45.46 46.24 47.14 47.71 48.13 48.15 48.73 49.83 50.64 51.65 53.03 54.24 56.00 57.89 58.70 61.26 60.87 60.23 59.97
38.63 38.56 42.89 44.68 43.52 44.89 44.50 42.42 43.44 43.76 43.48 43.59 43.68 44.29 45.23 45.82 46.72 47.42 47.99 48.38 49.18 49.56 50.66 52.10 53.23 54.71 55.85 58.74 60.81 59.96 57.87 57.73
37.08 41.04 42.82 44.99 44.70 44.77 45.10 44.47 44.69 44.63 44.33 44.73 43.41 44.53 44.98 45.95 46.65 47.07 47.93 47.97 48.71 49.11 49.12 50.13 52.30 53.27 55.12 58.20 60.11 58.70 57.35 55.98
38.67 40.20 40.82 42.81 43.66 44.75 44.98 45.37 44.67 45.17 44.99 44.57 44.77 44.64 44.42 44.59 45.78 46.96 48.00 49.15 49.56 49.25 49.28 50.02 51.77 52.48 54.52 56.78 58.76 56.60 56.62 56.03
39.18 43.74 43.30 42.55 45.05 46.25 44.75 44.74 45.36 45.16 44.14 45.40 45.16 45.36 45.15 45.09 45.14 45.63 47.20 48.67 49.39 50.11 50.00 50.21 52.53 54.17 54.81 57.22 57.01 55.16 54.62 55.21
43.51 45.19 45.27 45.82 46.37 46.88 45.54 45.76 46.39 46.50 46.39 45.48 46.53 46.60 46.58 45.17 45.99 46.69 46.99 46.86 46.72 47.11 47.62 49.38 48.22 50.50 53.61 54.44 51.14 52.06 53.43 53.60

GFSFLT2_sfc_wetblb_078.txt.gz
Wetbulb
48.72 50.24 51.55 52.96 50.35 53.67 49.42 50.81 48.48 49.81 52.58 57.35 59.76 60.40 61.72 60.65 62.91 65.15 68.34 71.17 71.60 71.81 72.21 72.65 72.92 73.43 74.04 74.40 75.15 75.52 75.61 76.28
47.33 49.61 50.50 52.53 55.03 48.47 49.44 44.42 43.87 47.35 49.30 51.79 54.80 55.78 57.54 57.60 59.34 63.42 68.14 69.74 71.56 72.45 72.26 72.94 73.45 73.87 74.61 74.99 75.05 75.74 75.68 75.87
48.05 47.27 47.77 49.12 49.74 50.69 51.36 49.73 46.22 44.68 48.54 56.12 53.95 54.58 55.22 56.39 58.39 61.37 63.57 67.35 68.90 71.04 72.45 73.01 73.58 73.80 73.93 74.54 74.93 75.37 75.58 75.68
45.49 46.62 47.73 48.64 48.82 50.80 47.53 47.09 49.15 49.35 48.94 57.37 57.46 55.18 56.27 56.31 57.45 59.56 61.55 62.39 63.86 66.48 70.88 72.75 73.01 73.55 73.67 74.14 73.82 74.83 75.10 75.58
42.73 45.38 47.12 47.48 47.73 48.93 49.57 50.99 48.86 46.13 47.53 57.98 58.50 57.52 57.73 56.27 56.79 57.83 58.64 59.52 61.22 63.10 64.52 66.91 68.03 72.68 73.28 73.64 73.70 74.01 74.29 73.66
42.92 44.88 47.62 44.84 45.16 46.85 48.41 47.81 48.90 49.09 49.68 53.70 55.56 56.66 58.37 58.69 57.01 56.33 57.33 58.21 59.19 59.78 60.95 62.33 65.50 67.20 68.51 72.79 73.65 73.97 74.14 74.33
45.71 45.39 45.66 44.62 44.01 44.39 46.23 47.43 47.07 48.69 51.07 52.96 55.31 55.61 56.55 57.83 58.02 57.26 56.79 56.85 58.08 58.68 59.41 60.74 61.11 63.58 65.58 67.41 69.94 74.00 73.74 73.83
42.91 43.85 43.91 42.72 44.16 44.10 43.98 44.87 47.15 49.42 49.51 55.14 56.33 56.56 54.77 54.74 54.67 54.34 54.70 55.69 57.36 58.59 59.63 59.96 60.85 61.43 61.33 62.81 66.33 71.47 72.95 73.36
40.38 42.19 41.82 39.76 43.78 44.37 45.31 46.40 46.89 45.94 51.04 53.58 53.59 53.64 53.28 53.31 53.67 52.99 53.19 53.87 54.79 56.14 57.74 59.19 60.10 61.42 61.13 61.63 64.62 65.42 70.72 73.42
42.65 41.09 34.28 43.48 46.97 46.24 45.75 47.69 48.78 50.51 51.13 52.04 52.05 52.93 53.92 55.03 54.16 53.89 54.23 54.02 54.71 55.33 56.45 58.01 59.47 59.37 62.17 63.20 64.01 63.80 63.49 64.46
39.52 38.71 40.85 41.55 44.04 44.33 45.34 45.30 48.97 49.53 50.08 50.60 51.36 52.50 52.85 53.81 53.86 53.74 54.09 54.79 55.22 55.72 56.74 58.47 58.59 59.87 61.37 62.18 64.81 63.95 62.17 62.79
40.37 36.67 34.62 43.95 46.82 49.05 48.56 42.78 49.26 49.90 49.26 49.46 50.75 46.95 51.39 52.94 52.95 53.37 54.14 54.65 54.79 55.44 56.35 57.40 57.94 58.55 59.40 60.69 61.58 63.82 63.98 63.24
40.33 38.33 41.44 46.10 47.45 49.21 38.69 43.30 49.34 50.05 49.68 50.06 48.97 50.73 51.55 52.62 52.75 53.54 53.91 53.95 54.42 55.17 55.36 56.79 57.61 57.58 57.62 59.54 60.33 62.57 63.78 64.02
41.32 38.19 36.07 48.67 46.98 42.96 48.09 50.02 49.50 48.78 48.93 48.85 49.22 50.05 50.62 51.58 51.96 52.45 52.55 53.24 53.79 53.71 54.26 55.94 56.98 56.83 56.66 57.36 60.57 62.49 62.98 62.84
42.92 44.44 48.07 49.98 49.41 50.36 49.08 47.73 48.71 49.13 48.86 48.56 47.83 48.47 49.43 50.21 51.09 51.83 52.35 52.87 53.58 53.31 53.59 54.94 55.94 56.26 55.71 57.32 58.90 60.48 61.87 61.75
42.19 46.06 46.97 48.77 49.28 49.44 48.86 48.68 49.00 48.97 48.58 48.93 47.51 48.56 48.98 49.80 50.28 50.84 51.74 51.84 53.39 53.73 53.37 53.74 55.30 55.93 56.43 57.23 57.95 58.56 59.88 60.65
44.11 46.32 45.71 48.45 49.28 49.03 48.38 48.71 48.23 48.67 48.64 47.98 47.82 48.18 48.97 49.19 50.10 50.41 50.29 50.09 50.38 51.10 50.60 49.62 51.09 52.94 55.51 57.47 58.70 57.35 58.87 59.59
42.50 46.94 47.33 46.59 49.78 49.95 48.66 48.18 48.49 47.87 47.58 48.66 48.97 48.19 47.50 47.44 47.36 46.97 47.97 49.61 50.23 49.18 50.50 51.23 51.66 52.19 54.26 53.94 54.17 56.01 57.48 57.72
47.44 49.72 49.08 49.63 50.12 50.40 49.05 49.13 48.98 48.43 48.70 48.11 49.26 48.63 48.38 47.76 47.10 47.14 47.73 49.00 48.30 48.13 47.73 49.00 49.17 50.15 52.20 53.60 52.70 50.63 51.71 55.50

GFSFLT2_sfc_wetblb_081.txt.gz
Wetbulb
56.90 58.16 55.89 54.51 51.93 54.95 51.27 52.28 49.01 53.01 56.43 60.33 62.49 62.31 61.01 61.82 65.89 67.86 67.78 70.14 70.25 71.47 70.61 72.06 72.58 72.85 74.25 75.56 76.03 76.55 76.54 77.79
51.99 53.53 55.17 53.99 57.09 50.72 51.08 46.55 45.22 50.69 52.84 54.21 57.64 58.25 58.37 58.39 60.74 64.97 70.57 68.32 67.59 70.25 71.93 72.18 72.45 73.03 74.21 75.16 75.74 76.75 77.00 76.97
51.25 50.75 51.13 52.38 52.12 53.73 53.20 51.94 48.09 46.62 51.41 60.00 57.88 57.59 56.74 57.46 59.12 61.01 63.62 66.18 67.35 70.11 71.26 71.06 73.31 74.18 74.27 74.77 75.55 76.21 76.80 77.33
48.47 52.26 52.42 53.05 53.27 53.66 49.49 49.51 51.17 49.88 51.15 60.00 59.89 59.56 57.82 57.15 58.64 60.60 62.35 62.98 63.74 66.19 67.66 68.73 68.97 70.83 72.77 74.59 74.97 75.94 76.66 78.02
45.90 48.75 51.59 50.15 52.15 53.30 53.73 53.10 50.66 48.16 50.72 60.09 60.48 59.82 58.32 56.64 57.15 58.80 60.08 63.05 62.30 61.24 62.07 64.60 67.32 70.57 69.80 69.18 73.65 74.83 76.07 76.37
44.47 47.44 50.30 48.84 49.36 51.57 51.76 49.08 50.38 51.76 52.95 56.87 58.41 59.38 59.14 57.82 58.96 58.19 58.75 59.43 60.62 60.29 61.12 62.61 63.19 65.63 68.54 69.83 71.88 71.01 73.97 75.51
48.21 48.66 49.96 49.90 49.48 49.17 49.63 51.36 49.28 53.13 53.95 56.59 58.33 59.08 59.84 60.89 59.85 59.20 59.56 59.68 58.53 59.38 60.10 61.72 62.31 62.61 63.68 67.10 69.87 71.86 73.50 73.26
46.33 46.75 47.39 46.10 46.97 47.36 48.84 49.45 50.97 53.43 52.34 58.67 59.08 59.24 58.13 58.27 58.12 57.33 57.81 58.51 59.36 60.58 61.42 60.53 61.35 62.66 63.30 64.32 66.38 69.10 69.35 71.13
43.40 46.25 44.97 42.77 46.47 47.31 48.21 49.48 51.36 51.43 55.40 57.90 56.54 56.10 56.05 56.46 56.77 56.24 56.60 57.15 57.78 58.77 59.61 60.98 61.23 62.09 61.89 63.51 65.46 64.50 64.83 65.30
43.23 46.02 37.63 47.08 50.06 49.16 48.38 49.50 52.12 54.84 55.84 56.83 56.87 56.60 57.25 57.88 56.89 56.49 57.17 57.43 57.44 57.76 59.05 60.24 60.68 61.17 62.01 63.49 65.35 64.45 63.70 63.79
41.28 41.55 44.32 45.23 47.15 46.83 47.47 48.48 51.80 53.58 54.41 55.07 55.54 55.90 54.99 56.22 56.53 56.29 56.42 57.19 57.78 58.21 58.79 60.41 59.81 60.59 61.52 62.98 64.27 66.02 64.65 64.07
43.82 39.92 37.69 46.29 49.51 51.71 50.73 45.52 52.09 53.72 53.21 52.95 53.61 49.59 52.84 55.34 55.26 55.46 56.23 56.83 56.72 57.39 58.45 59.06 59.58 59.95 59.98 60.47 61.94 62.68 63.67 64.88
42.79 41.27 44.66 50.17 50.26 50.71 41.02 46.08 52.91 53.36 53.21 52.15 51.74 53.86 53.98 55.05 54.80 55.38 55.61 55.99 56.50 57.17 57.17 57.93 59.11 59.29 59.02 59.57 59.69 61.54 63.14 64.19
44.15 41.87 39.07 51.40 49.25 45.31 51.14 53.77 53.45 53.28 52.45 51.83 52.78 52.75 52.95 53.45 53.90 54.24 54.27 54.98 55.90 56.17 56.37 57.49 58.33 58.29 58.02 58.44 60.15 60.74 61.19 62.36
45.87 47.06 52.13 52.39 52.13 54.40 54.35 52.44 51.73 52.22 51.92 51.50 51.34 51.59 52.02 52.98 53.15 53.87 54.17 55.05 55.92 55.91 56.55 57.49 58.12 58.20 57.18 58.64 59.94 60.07 59.86 60.47
45.83 49.62 49.91 50.82 52.64 52.82 52.28 51.91 52.64 52.47 51.78 51.31 50.88 51.46 51.73 52.50 52.85 53.62 54.15 53.63 53.70 54.19 54.08 54.20 54.93 55.86 56.38 57.38 58.13 58.42 59.71 59.92
46.30 49.14 49.31 51.09 52.09 52.37 51.43 51.56 51.26 51.81 51.09 50.26 50.69 50.68 51.33 51.73 52.40 52.49 52.46 52.52 52.35 51.78 51.84 51.89 52.83 53.21 53.92 55.93 56.36 56.10 56.72 57.93
45.11 50.15 50.18 49.57 52.61 52.89 50.97 50.26 50.80 50.48 50.19 50.93 50.78 50.88 50.70 51.22 51.26 51.84 51.48 51.58 52.01 51.60 51.45 51.43 50.80 51.71 53.36 54.31 53.70 52.83 54.16 55.04
50.03 52.48 52.18 51.88 52.00 53.03 51.43 51.65 51.77 51.23 51.09 50.54 51.43 51.46 50.87 50.92 50.64 49.45 50.70 50.64 50.50 50.62 50.82 50.47 50.82 49.25 50.07 51.67 51.55 51.10 50.44 52.54

GFSFLT2_sfc_wetblb_084.txt.gz
Wetbulb
55.43 56.99 56.50 53.80 51.55 56.14 51.48 52.00 48.47 53.55 56.61 60.68 61.73 60.64 62.29 63.62 66.56 66.78 68.32 69.41 69.21 70.34 71.04 72.66 70.50 72.45 73.64 75.11 76.09 76.77 76.63 77.37
55.47 57.54 57.98 55.25 56.39 50.30 51.77 45.21 44.72 51.94 53.02 53.92 58.32 58.01 59.14 60.04 61.16 62.25 63.68 67.95 67.90 68.61 68.18 72.85 71.53 72.87 74.75 75.88 76.00 76.61 76.58 77.25
54.63 52.69 52.25 52.95 51.65 53.13 52.91 51.32 46.58 47.47 50.43 60.18 59.35 59.28 58.15 58.65 60.29 61.58 62.36 64.53 66.96 66.90 65.98 69.53 72.09 70.88 73.76 75.65 76.15 76.69 76.97 77.14
49.39 53.61 55.41 54.62 53.33 53.58 48.95 49.19 51.13 49.88 50.57 60.38 60.10 58.86 59.01 58.17 59.66 61.99 62.97 62.29 64.49 66.18 65.61 65.24 67.02 70.86 71.38 71.05 74.91 76.28 76.99 77.40
46.83 49.87 52.40 50.40 52.37 53.41 53.63 53.39 50.10 45.29 50.18 60.25 59.79 58.14 58.26 57.62 58.76 60.89 62.04 63.01 63.42 63.65 63.94 64.21 64.21 65.39 67.98 71.33 71.95 73.31 76.57 77.08
42.43 46.86 49.98 48.45 50.48 52.42 52.05 48.88 50.40 51.51 52.89 56.30 58.04 57.66 57.87 57.56 58.39 59.37 60.61 61.74 62.35 62.83 62.83 63.60 63.35 64.36 65.69 68.33 69.43 71.75 72.90 71.24
49.45 49.55 50.60 49.66 49.65 50.20 49.98 51.25 49.17 52.57 52.99 55.76 57.76 58.85 59.32 59.58 59.94 59.39 58.99 59.88 60.40 60.11 60.83 62.47 62.92 62.78 64.41 66.36 67.12 69.51 70.63 71.33
46.62 48.29 49.07 48.53 49.90 50.48 50.48 51.08 52.23 53.67 53.13 58.71 58.56 60.07 59.28 58.84 58.53 57.95 58.28 58.81 59.91 61.08 61.04 60.88 61.75 62.29 63.51 65.02 65.04 66.43 67.33 67.35
44.31 46.94 46.29 44.37 47.53 47.91 49.20 51.05 54.46 51.23 53.97 58.25 57.09 56.81 56.90 56.97 57.22 56.77 56.98 57.61 58.45 59.06 60.22 60.53 60.85 63.09 63.92 65.21 65.05 63.96 64.40 65.49
43.49 45.99 38.22 47.49 51.18 50.27 49.30 50.38 55.57 56.49 56.69 57.09 56.86 57.08 57.80 58.21 57.18 57.00 57.18 57.26 57.64 58.43 59.36 60.50 60.18 61.11 63.98 65.39 65.80 65.62 65.11 64.89
40.99 41.70 45.35 46.40 48.41 47.94 47.67 48.09 55.63 56.43 56.86 56.11 56.37 56.38 55.03 57.36 57.22 56.72 56.98 57.32 57.36 58.43 59.43 61.15 60.05 61.75 62.93 63.14 65.00 64.33 64.36 65.93
43.99 38.93 37.01 46.00 50.14 52.46 50.66 45.20 53.72 56.25 56.16 55.76 55.54 50.29 51.73 55.74 56.23 56.14 56.88 57.10 56.59 57.57 58.58 58.74 59.54 59.75 60.45 59.96 61.97 61.45 62.20 64.29
42.71 40.73 43.98 50.49 50.34 51.21 42.41 46.61 54.19 55.90 55.57 54.71 52.80 54.20 55.51 56.26 55.83 56.36 56.25 56.30 56.70 57.39 57.21 58.06 58.87 58.83 59.30 59.61 59.05 60.25 61.40 62.36
43.13 41.02 38.82 52.17 49.62 45.37 52.08 54.87 54.45 55.39 55.07 54.42 54.60 54.98 54.87 55.01 54.89 54.88 55.04 55.69 56.18 56.31 56.85 57.82 58.72 58.34 57.73 58.96 60.36 61.35 61.75 61.68
46.56 46.44 52.43 53.56 52.94 55.10 54.74 53.38 53.73 53.81 53.70 54.12 52.88 52.83 53.36 53.62 54.01 54.59 55.18 55.15 55.67 55.60 56.74 57.32 56.59 56.22 55.19 57.68 59.33 59.36 59.08 59.64
47.44 50.80 51.38 52.40 53.93 54.24 54.73 53.63 53.59 54.05 52.95 52.37 51.74 52.61 52.78 53.46 53.70 54.05 54.34 53.59 53.83 53.92 53.63 54.03 54.81 54.95 54.72 56.38 57.83 57.16 57.01 57.93
46.87 49.69 50.68 51.53 52.65 53.18 52.42 53.18 53.23 53.01 52.67 52.18 52.06 51.56 52.64 52.50 53.39 52.86 53.02 53.02 53.16 52.27 52.32 52.53 53.15 53.10 53.59 54.50 54.99 52.55 53.26 54.51
44.66 50.58 50.84 51.28 53.70 54.32 52.46 51.25 52.05 51.73 50.71 51.37 51.40 52.48 52.17 51.93 52.02 52.35 52.00 52.23 52.16 52.07 52.04 51.59 51.59 51.77 51.92 52.16 52.28 51.14 50.57 50.99
50.41 53.04 52.93 53.09 52.93 53.84 52.51 51.92 52.05 51.81 52.39 51.55 51.99 52.43 51.80 51.46 51.62 48.75 51.15 51.15 50.88 50.56 51.09 51.29 51.02 50.08 50.38 51.00 51.16 50.26 48.99 50.05

GFSFLT2_sfc_wetblb_087.txt.gz
Wetbulb
51.89 52.52 50.71 47.37 46.10 49.82 43.68 46.61 41.31 49.24 52.83 57.17 59.76 60.21 62.68 63.12 63.13 61.40 62.24 63.16 63.63 64.36 68.35 69.72 68.08 70.30 71.26 71.81 72.40 72.03 72.67 72.56
51.48 52.99 53.47 50.00 51.54 44.56 42.88 38.23 36.79 48.54 49.54 51.77 55.73 55.80 58.99 59.58 60.91 62.36 64.67 66.54 65.41 66.81 68.01 68.28 68.95 71.00 72.17 72.81 72.60 73.06 72.94 73.42
50.16 46.93 47.92 48.47 46.12 46.63 45.54 44.68 39.12 43.01 48.43 57.26 55.44 56.62 56.40 58.98 60.60 62.04 62.92 65.88 66.94 67.29 66.80 67.30 67.61 69.74 71.47 72.16 73.19 73.61 73.49 73.59
45.85 52.23 53.75 51.05 48.44 46.39 40.85 40.70 44.63 47.44 48.32 58.67 57.16 57.34 57.98 58.94 61.10 61.54 62.95 63.03 65.40 66.19 66.85 67.57 66.42 67.10 68.56 68.78 70.14 71.01 74.15 74.28
41.62 47.88 49.49 45.61 47.79 46.52 46.18 44.65 43.29 43.95 48.39 57.55 58.12 57.43 58.42 58.74 59.87 61.25 61.13 61.66 62.58 62.99 63.82 64.84 65.33 66.37 67.03 67.97 68.24 70.17 69.55 71.97
38.81 40.92 43.65 43.33 47.39 47.78 44.40 39.83 44.86 49.12 50.18 54.13 55.49 55.41 56.60 57.59 59.19 60.11 60.50 61.10 61.47 61.64 62.09 62.63 63.92 64.96 65.86 66.76 68.47 68.92 69.32 68.00
46.54 48.20 48.19 46.68 46.93 48.20 44.18 49.47 47.97 49.66 50.97 54.42 55.24 55.30 56.15 57.17 57.87 58.43 57.57 57.68 58.72 59.69 60.70 62.02 62.94 64.06 65.17 65.54 67.01 67.57 67.34 67.84
44.61 47.99 46.76 45.11 48.11 48.98 47.87 52.61 51.68 52.27 51.48 56.90 57.54 57.54 57.25 57.12 57.07 56.96 57.73 57.59 58.12 58.65 58.82 59.62 61.20 61.88 63.85 63.18 64.80 66.38 65.71 66.37
37.55 45.12 44.46 41.68 46.11 46.22 47.93 53.93 52.88 48.56 52.61 57.39 55.82 54.87 54.72 53.99 54.33 54.17 55.56 55.68 55.89 56.55 56.75 57.10 59.45 62.03 62.54 62.89 63.95 64.38 64.45 64.46
38.69 41.82 34.94 43.14 47.31 48.24 47.53 55.17 54.58 53.77 54.32 55.68 54.40 54.10 54.43 54.63 53.27 53.28 53.77 54.06 54.57 54.84 54.54 55.14 56.54 58.99 62.69 63.48 64.07 63.98 63.55 63.94
35.98 34.91 42.39 44.71 46.34 45.85 48.00 51.04 55.74 54.26 55.11 54.42 54.54 53.49 51.75 54.47 54.33 53.35 52.67 52.79 53.52 55.76 55.53 55.39 55.54 56.76 57.96 59.24 58.56 58.75 59.32 61.79
37.99 33.13 32.87 41.08 47.44 49.10 48.26 46.27 55.78 53.83 52.61 52.72 52.60 45.55 47.16 52.15 53.25 52.88 52.77 52.55 52.84 54.30 54.77 54.37 54.37 56.20 55.78 56.35 56.35 56.39 57.71 58.49
37.64 36.65 41.99 47.17 48.47 48.82 39.45 43.47 53.27 53.87 53.12 52.25 48.07 49.58 50.83 52.40 52.11 52.66 52.28 51.98 53.33 53.92 53.16 53.93 54.93 55.31 55.34 54.75 54.64 56.42 57.28 58.57
38.46 36.69 34.83 51.18 50.25 44.85 47.37 49.21 51.78 52.84 52.33 50.43 50.72 51.60 51.81 51.61 50.96 51.66 51.50 52.31 53.27 52.85 53.04 52.94 53.29 52.71 52.51 52.30 54.65 55.07 55.09 55.15
43.12 41.74 47.98 50.44 49.59 51.02 51.13 49.82 49.86 49.08 51.01 51.45 50.33 50.02 50.42 49.45 50.13 51.29 51.15 50.88 51.56 51.37 51.58 51.86 52.02 51.19 49.53 51.00 52.87 52.63 52.11 51.88
44.45 47.66 48.77 50.62 51.53 52.05 52.27 50.32 51.46 50.26 49.30 49.46 48.55 49.23 49.19 49.47 49.63 49.94 49.70 48.96 49.89 49.65 49.35 48.95 49.99 50.26 49.64 50.40 50.50 49.38 48.76 49.17
42.50 46.43 47.95 50.04 50.91 50.58 50.56 52.25 51.27 51.38 50.55 49.81 49.13 49.13 49.09 49.10 48.28 48.84 48.89 48.93 48.84 47.83 48.30 47.34 47.87 48.29 48.20 48.19 48.66 47.31 47.44 47.91
40.19 46.83 45.97 47.41 50.24 51.48 49.65 49.16 50.12 49.30 48.63 49.47 49.99 48.73 49.23 47.73 48.18 48.36 47.70 47.99 47.60 47.79 47.18 46.66 47.56 46.64 46.63 47.21 47.37 46.03 45.16 45.75
46.54 49.85 49.58 50.31 51.38 52.86 50.96 49.65 50.34 49.56 48.97 47.60 49.82 49.20 49.08 48.13 46.99 47.14 47.44 47.22 46.55 46.55 46.68 46.32 46.03 45.48 46.32 47.00 46.28 46.05 44.92 45.07

GFSFLT2_sfc_wetblb_090.txt.gz
Wetbulb
49.70 49.31 48.09 43.83 41.78 46.61 42.58 46.02 39.91 49.42 51.92 56.61 59.52 60.32 60.66 60.62 63.57 63.29 63.89 64.72 65.62 66.51 67.76 68.35 68.37 69.28 70.98 71.04 69.96 69.92 70.61 70.60
50.35 48.88 49.41 47.16 48.85 41.96 40.12 38.06 35.30 45.97 48.02 48.61 55.50 58.07 59.71 60.58 59.90 62.35 64.17 64.26 64.61 65.37 68.00 68.60 68.37 68.07 70.16 72.37 71.15 70.69 71.27 70.79
47.49 43.06 43.83 44.81 43.45 43.43 43.03 40.49 38.35 41.87 46.64 56.77 55.44 57.30 58.21 59.54 60.90 62.27 63.21 65.15 66.74 66.04 67.36 67.87 68.38 68.68 69.64 70.79 70.94 70.91 71.39 71.61
43.04 49.96 50.28 47.71 46.16 44.28 39.50 38.96 41.41 46.49 48.62 57.67 57.35 58.22 59.31 60.07 60.96 62.10 62.80 64.19 66.48 66.37 67.20 66.93 67.56 68.19 68.39 68.91 69.31 69.86 70.08 70.12
39.89 43.83 46.61 43.56 45.24 42.70 41.98 41.27 40.16 43.03 46.91 57.89 57.83 57.72 58.78 59.60 61.16 61.05 62.06 62.67 63.11 64.44 65.73 66.09 66.63 67.42 68.30 69.02 68.73 68.86 69.09 69.09
34.05 38.10 43.09 43.72 45.47 43.99 40.66 37.90 44.77 46.21 50.87 54.63 55.66 56.32 57.90 59.13 60.07 60.49 60.99 61.76 62.07 62.23 62.68 64.32 65.57 66.13 67.01 68.71 68.89 68.84 68.61 67.65
41.38 45.00 46.53 45.39 44.73 45.18 42.54 44.98 43.91 49.83 50.21 53.49 54.86 55.40 57.23 58.56 58.58 58.11 58.24 59.84 60.61 61.11 61.89 63.22 64.50 64.64 65.81 67.44 68.07 68.46 67.65 67.19
40.00 45.61 44.74 43.08 45.56 46.11 49.82 52.32 51.69 51.65 51.30 55.49 55.60 56.38 56.31 57.41 56.79 55.89 56.58 57.79 58.68 60.06 60.74 61.04 62.57 63.30 63.56 64.71 65.66 66.43 66.32 66.29
36.81 41.90 41.06 37.73 41.98 45.47 51.67 53.62 53.12 49.10 52.44 54.76 54.55 54.89 55.48 55.76 56.34 56.01 55.21 54.88 55.56 56.71 58.43 60.25 61.16 61.51 62.03 63.46 64.64 63.65 64.06 64.49
37.10 39.81 33.12 40.37 46.93 52.37 53.61 54.61 54.33 54.14 54.57 55.36 54.76 54.44 53.77 53.24 53.72 54.29 54.45 53.29 53.28 53.89 53.80 54.76 59.32 62.79 62.45 62.40 62.61 63.62 63.63 63.73
36.40 34.26 37.57 42.44 45.59 44.58 47.03 49.38 55.73 54.73 54.15 52.35 52.58 52.20 50.23 52.59 52.15 50.84 51.71 52.31 52.65 53.39 53.23 55.04 55.46 56.78 56.59 55.66 55.55 56.34 56.99 58.21
37.51 34.88 32.52 40.18 46.69 48.53 51.07 44.96 53.91 52.94 51.47 50.81 51.48 45.37 47.15 51.07 51.51 50.56 51.05 52.48 52.15 52.40 53.44 53.70 53.78 55.08 54.21 53.83 53.78 53.48 54.86 56.37
36.27 33.50 40.79 47.51 50.26 51.11 38.90 41.41 51.07 53.23 51.82 51.04 47.18 48.00 49.76 51.13 51.26 51.24 50.99 51.53 52.89 52.27 51.26 50.98 52.60 52.35 51.59 51.77 51.51 52.77 53.86 54.30
35.77 33.80 31.33 49.32 49.23 44.29 45.59 47.80 50.67 49.59 48.58 49.42 50.22 49.59 49.87 50.16 48.77 50.06 50.55 51.91 51.44 50.36 49.99 49.99 50.58 49.92 49.21 49.42 50.61 50.81 50.40 50.51
40.05 39.34 45.20 46.71 46.70 49.14 48.94 48.65 48.09 49.25 49.87 51.53 50.13 49.29 49.10 48.54 48.58 49.06 49.97 50.10 50.50 48.84 48.20 48.33 48.36 48.44 46.89 47.21 48.45 48.41 47.80 47.69
41.99 44.30 45.70 47.62 48.27 49.52 50.20 47.87 49.05 50.48 50.49 48.98 47.34 48.13 48.39 48.46 47.85 47.54 47.96 48.17 48.12 47.51 46.47 45.88 46.47 46.59 45.99 46.77 46.95 46.34 46.01 46.08
40.07 43.89 46.32 47.82 48.09 47.76 49.83 50.11 49.03 48.61 49.03 47.94 48.13 47.34 47.96 47.11 46.72 46.70 46.73 46.79 47.20 46.18 45.08 45.15 45.26 44.71 45.41 46.22 45.62 44.56 44.28 44.60
37.04 43.45 42.49 44.49 48.43 49.69 48.47 48.48 48.40 47.69 46.92 48.51 48.93 47.17 47.43 45.96 46.23 46.18 46.41 46.36 45.92 45.37 44.83 44.89 44.16 44.15 44.54 45.03 44.40 43.46 43.21 43.40
43.35 46.18 46.28 47.02 49.68 50.53 48.23 48.35 48.34 46.64 47.37 47.23 47.63 47.23 46.98 45.95 44.96 47.59 45.59 45.43 44.97 44.75 44.58 44.32 43.31 43.82 44.19 44.56 44.65 43.62 41.47 41.71

GFSFLT2_sfc_wetblb_093.txt.gz
Wetbulb
48.79 47.84 46.76 41.57 39.06 44.21 41.70 38.76 39.08 45.04 49.62 54.99 60.03 59.64 60.85 61.78 63.01 62.94 63.93 64.65 65.59 66.82 67.89 68.23 67.41 69.48 69.61 68.25 67.91 67.65 68.34 69.52
49.06 47.93 46.50 44.61 46.03 40.39 38.14 35.53 34.57 41.77 44.62 47.45 54.84 57.63 59.11 59.63 60.36 61.59 63.13 64.05 65.67 66.58 67.84 68.31 67.63 68.86 69.84 69.83 69.10 69.14 68.57 69.09
45.11 41.67 41.10 42.71 41.44 40.43 40.37 39.10 36.65 38.87 43.54 54.50 55.67 58.03 58.71 58.97 60.99 61.17 62.98 64.23 64.76 66.54 67.91 68.15 68.69 69.23 69.57 70.20 69.83 69.73 70.03 69.07
40.92 47.68 48.19 44.94 43.36 42.47 38.33 36.82 41.26 43.57 44.42 57.09 57.54 57.99 58.97 59.43 60.62 62.29 63.54 65.05 65.32 66.07 67.17 67.55 67.86 68.54 68.72 69.53 69.44 68.99 68.63 69.61
38.24 41.74 44.60 41.99 42.78 39.90 39.97 39.57 43.06 42.12 43.29 57.14 57.79 57.03 59.21 58.70 59.39 61.30 62.66 63.35 65.50 66.22 66.24 66.90 67.64 68.20 68.38 68.60 68.56 68.36 67.86 68.56
33.64 36.41 40.14 40.05 43.73 43.83 38.33 37.11 40.30 42.34 49.87 53.22 55.35 56.13 58.64 59.84 59.86 59.95 61.71 62.08 62.59 63.77 65.06 65.92 66.37 67.43 68.31 69.06 69.06 68.45 68.11 67.95
39.12 41.76 42.82 43.12 43.62 42.58 40.20 40.93 42.89 47.00 49.91 53.52 54.84 56.05 58.52 59.04 59.26 59.47 60.10 60.89 61.52 62.12 63.27 64.54 65.28 66.37 67.99 68.24 68.38 68.33 67.39 67.12
39.39 44.19 42.84 41.00 42.87 43.59 48.96 51.11 50.32 50.67 50.84 56.07 56.30 58.09 57.64 56.59 56.96 57.71 58.46 59.90 61.10 61.61 62.39 63.17 63.79 64.29 65.24 65.60 66.57 67.72 66.95 66.66
34.82 41.32 40.25 36.13 40.37 41.13 48.28 51.98 51.67 47.60 50.64 54.32 54.80 56.16 56.24 55.33 54.89 55.86 56.65 57.63 59.16 60.40 61.43 62.04 62.19 63.19 63.12 63.67 64.43 64.26 64.41 65.13
35.59 37.71 32.97 38.36 45.18 46.64 52.84 53.57 53.20 52.52 53.34 54.79 55.25 56.50 56.26 56.55 54.33 54.23 54.64 54.00 54.05 55.09 58.88 61.31 62.37 61.88 59.34 58.78 59.14 60.54 61.75 63.36
36.10 34.76 39.24 42.22 43.61 43.89 41.48 50.90 54.43 53.04 53.54 53.38 52.09 52.50 50.53 54.89 55.27 54.02 53.41 53.14 52.92 54.64 55.78 56.40 55.98 55.57 55.31 54.73 54.97 55.66 56.18 57.29
38.67 34.96 32.81 40.37 47.05 50.16 50.13 46.92 55.68 54.79 51.10 50.24 51.53 45.21 46.44 51.33 53.36 53.32 52.82 53.02 54.58 55.45 54.85 53.25 51.93 53.42 52.89 52.13 52.42 52.27 53.02 53.82
38.09 35.82 40.53 46.85 48.42 49.60 37.55 42.39 53.50 52.90 51.55 51.10 47.23 47.30 48.70 49.80 51.19 51.27 51.68 51.79 52.23 51.75 50.76 50.39 50.57 50.90 49.70 49.43 48.90 50.13 51.04 51.04
33.03 33.17 33.81 48.12 48.24 42.55 43.45 46.21 52.59 51.81 51.40 49.41 49.92 49.79 48.85 48.20 49.68 51.03 50.20 50.35 50.67 49.28 48.15 48.17 48.86 48.64 46.88 46.81 47.73 48.25 48.48 48.33
37.81 38.10 45.05 46.81 44.17 47.73 49.29 47.82 48.73 49.95 51.56 50.91 50.18 48.80 48.81 48.85 50.66 51.00 50.05 49.25 48.89 47.42 46.85 46.72 46.69 46.61 45.36 45.33 46.72 46.64 46.01 45.65
39.94 43.17 44.07 46.16 47.86 48.13 50.27 48.33 50.66 51.20 51.76 51.46 49.75 50.10 49.13 47.87 48.42 48.61 48.44 47.62 47.52 46.26 45.09 44.25 44.96 45.43 45.22 45.27 45.26 44.57 43.78 43.54
38.48 42.15 45.37 47.02 47.03 47.81 47.84 48.95 50.33 50.65 51.80 51.21 50.04 48.95 48.47 46.80 47.36 47.83 46.99 46.33 45.77 44.92 44.53 43.34 43.45 44.04 44.27 44.26 44.13 43.17 42.81 42.63
37.22 42.34 41.14 43.04 46.67 48.99 47.66 47.40 47.95 48.19 47.54 48.46 48.71 47.15 46.94 45.37 45.80 45.82 45.47 45.19 44.30 43.91 43.80 43.04 42.78 43.06 43.31 43.42 43.33 41.51 40.94 40.91
42.09 44.56 44.93 45.18 47.05 48.17 46.50 46.83 47.41 47.66 47.82 47.35 47.25 47.21 46.52 45.12 45.01 47.27 45.09 44.94 44.13 43.80 43.58 42.82 42.75 42.92 43.65 43.18 42.91 41.22 39.95 39.17

GFSFLT2_sfc_wetblb_096.txt.gz
Wetbulb
47.05 46.53 45.76 39.61 37.54 42.45 38.54 38.41 40.19 43.87 47.88 54.68 59.32 59.83 61.52 62.15 62.45 62.83 64.07 64.81 65.94 66.43 66.84 67.31 67.68 69.51 69.19 68.82 68.59 68.12 69.13 69.77
47.69 46.95 44.91 43.47 44.63 38.59 36.43 33.48 34.02 38.95 44.75 45.28 55.37 57.26 59.54 60.76 60.99 62.27 63.91 64.05 65.11 65.80 66.25 67.55 68.10 69.76 69.95 69.29 68.21 68.78 68.96 69.77
43.33 40.34 40.45 41.53 39.08 38.74 38.99 38.56 35.63 35.50 40.82 52.86 54.77 58.63 58.92 60.04 61.08 61.68 63.12 64.68 65.55 66.93 67.81 68.20 69.12 69.79 70.64 69.50 68.72 69.34 69.18 69.26
40.53 44.06 46.26 43.22 39.63 40.15 37.07 35.66 38.38 39.58 41.30 56.98 58.20 59.94 59.51 59.79 61.46 62.44 63.20 63.70 65.33 66.53 67.42 67.69 68.12 69.11 69.62 69.61 68.98 70.01 70.41 70.33
36.80 40.20 43.19 41.20 41.38 38.92 37.69 40.53 41.64 39.58 41.08 57.84 58.83 58.99 59.73 59.39 60.58 62.43 63.60 64.61 64.42 65.94 66.21 66.68 67.40 68.32 69.09 68.84 68.48 68.28 68.71 69.31
33.22 35.57 38.87 39.44 42.02 42.23 37.61 36.14 38.48 41.60 46.81 54.30 56.24 56.80 58.59 59.35 60.30 61.90 62.78 64.17 65.36 65.38 66.17 66.77 67.25 67.94 68.12 68.37 68.46 68.46 68.62 68.75
38.76 40.97 41.53 41.19 40.62 41.29 38.04 38.52 40.76 43.51 47.12 52.22 55.44 56.65 58.95 59.81 59.79 60.28 61.13 62.10 63.24 64.35 65.09 65.66 66.56 67.83 68.23 68.71 68.59 68.30 67.69 67.83
39.35 42.61 42.14 39.86 41.94 43.83 43.55 48.50 48.99 48.33 47.58 54.29 57.27 58.89 58.41 58.05 58.79 58.94 60.11 61.28 62.09 63.25 63.88 64.53 65.43 66.40 66.45 66.27 67.85 68.30 67.72 67.47
34.92 39.89 39.70 35.03 40.46 41.23 42.05 50.41 50.04 46.45 49.63 55.48 55.88 56.40 55.94 55.58 57.86 58.17 59.60 60.48 61.39 61.77 62.08 62.34 63.42 64.38 63.56 64.31 65.38 65.37 65.68 65.98
35.20 36.69 30.72 37.70 44.20 46.29 48.61 52.64 52.70 52.17 54.01 56.13 56.02 55.47 56.06 56.35 55.66 56.70 56.59 56.33 58.55 60.77 60.93 58.17 58.12 57.84 58.41 59.12 59.13 59.40 59.36 60.72
34.14 32.75 37.13 41.52 43.87 43.97 41.73 48.98 53.83 53.23 55.07 53.29 53.80 53.48 52.64 55.32 54.51 53.57 54.48 55.34 56.65 57.12 57.29 56.23 55.65 55.81 55.21 54.93 55.11 54.87 54.70 55.44
36.04 34.27 32.58 39.33 46.51 49.42 49.53 43.18 55.22 54.15 51.90 52.04 54.07 48.03 48.84 52.72 53.25 53.18 54.84 56.79 55.65 55.30 55.28 54.66 55.25 54.75 52.63 51.75 51.78 51.61 52.53 53.01
36.02 34.61 38.13 45.64 46.50 48.91 38.42 39.98 53.42 53.74 52.36 52.88 48.88 49.37 49.39 53.00 52.25 53.70 54.42 54.31 54.67 54.27 51.68 51.19 51.53 51.72 50.22 50.23 49.39 50.71 51.61 51.32
32.59 30.86 33.26 47.35 47.15 43.94 44.88 47.20 51.94 52.48 52.72 51.29 50.07 49.01 49.34 49.66 51.18 50.98 50.63 50.86 50.86 49.65 49.05 49.26 49.44 49.36 47.95 47.53 48.73 49.52 49.51 49.28
36.33 36.31 44.04 47.06 46.01 48.15 49.66 49.24 50.25 51.00 52.42 52.51 50.28 49.05 50.01 50.01 50.44 49.48 49.48 48.83 49.06 47.85 46.90 47.05 47.76 48.20 47.03 47.02 48.37 47.61 47.03 46.84
39.04 41.73 44.40 46.35 48.26 48.87 50.41 51.05 52.16 52.56 53.03 52.51 50.17 49.87 50.13 50.70 49.61 48.70 48.02 47.49 47.37 46.71 45.68 45.46 46.70 46.78 46.44 46.70 46.95 46.20 45.54 45.33
39.35 43.26 44.99 46.58 46.73 47.66 49.21 51.04 52.01 53.57 53.32 52.41 50.98 49.75 49.86 49.15 49.04 48.57 47.95 47.57 47.30 46.19 45.31 44.95 46.03 45.73 45.98 46.07 45.94 44.21 43.84 43.79
38.55 41.77 42.02 43.57 46.85 48.47 48.86 48.78 50.00 50.21 50.34 53.07 51.42 49.49 50.05 49.47 48.93 48.55 47.57 46.56 45.93 45.51 44.66 44.12 44.66 44.42 44.93 45.44 45.07 43.32 42.52 42.70
41.95 44.64 44.15 46.20 47.73 48.60 47.74 48.49 49.01 48.84 48.90 48.51 49.17 49.81 49.06 47.12 47.30 47.93 46.75 45.89 45.66 45.29 44.75 44.29 44.45 44.29 44.58 44.77 44.22 43.20 41.54 41.81

GFSFLT2_sfc_wetblb_099.txt.gz
Wetbulb
50.53 51.83 51.59 47.19 45.95 51.82 48.58 48.94 48.56 51.39 53.39 57.14 61.49 61.87 63.73 63.56 65.29 65.40 66.05 66.58 66.63 69.26 70.11 70.90 69.43 70.88 72.18 72.60 72.69 72.63 72.85 74.38
50.72 51.97 49.98 49.81 51.64 45.38 47.06 42.29 42.28 47.60 49.83 52.40 57.94 59.67 62.81 63.73 63.99 64.94 66.33 66.59 67.57 67.36 67.94 69.12 69.98 70.50 71.89 72.91 72.60 72.79 72.82 73.90
49.82 49.06 48.52 48.30 47.36 48.45 48.65 47.97 44.37 43.87 48.46 57.89 59.02 60.57 62.12 63.97 65.27 65.28 65.77 66.82 68.24 68.54 68.13 68.21 70.21 69.72 71.32 72.07 71.76 72.52 72.49 73.14
46.56 50.03 50.83 51.14 49.11 49.71 45.40 44.41 47.60 47.83 49.04 59.93 60.76 62.16 62.54 63.62 64.18 65.98 66.52 66.90 68.31 69.19 69.28 68.34 67.99 69.44 70.99 72.94 71.59 73.32 73.52 72.77
44.24 48.15 49.85 48.57 48.97 49.23 47.91 50.33 47.85 45.32 48.09 58.26 59.97 61.14 62.21 61.67 62.99 64.56 65.65 66.07 67.34 68.13 69.08 69.20 68.34 68.24 69.48 70.56 71.36 70.87 72.12 73.36
41.68 44.50 47.44 46.61 46.52 47.61 47.67 46.13 47.29 49.23 51.44 55.52 57.69 59.19 59.96 61.97 62.98 64.10 65.25 66.30 67.20 67.36 68.33 69.22 69.59 69.14 68.92 68.90 69.48 69.57 70.81 71.08
46.31 46.89 46.40 45.76 44.73 47.57 45.68 48.84 47.33 49.75 52.99 56.91 58.59 58.89 60.02 61.06 62.30 63.24 63.71 64.76 66.28 67.03 67.80 68.80 69.41 69.94 69.81 69.62 68.40 67.95 68.49 68.52
44.83 46.45 46.59 44.34 45.82 48.44 49.49 48.06 48.43 53.00 53.06 59.04 60.60 60.55 59.91 60.44 61.18 61.65 62.53 63.16 65.31 66.30 66.93 67.38 68.42 69.04 69.67 69.10 68.56 68.38 67.91 67.64
42.10 45.05 44.89 42.38 45.42 46.95 49.17 51.60 52.68 51.36 55.75 60.16 57.93 58.77 59.16 59.19 60.27 60.65 61.87 62.75 63.46 63.97 64.07 65.05 66.35 67.05 66.78 67.50 68.47 68.40 68.54 68.31
44.09 43.90 37.44 45.42 50.23 50.58 51.03 54.48 56.05 55.93 56.46 58.23 58.43 59.62 59.95 61.22 59.97 60.12 60.50 60.67 61.31 59.57 58.95 59.01 60.46 60.90 61.60 62.06 62.03 61.93 62.47 63.89
42.49 41.13 43.36 44.79 47.91 47.21 47.20 50.03 56.58 55.60 56.24 57.00 56.81 56.84 55.40 59.80 61.94 59.83 59.13 58.32 58.21 57.84 57.04 57.51 57.27 57.83 58.28 58.08 58.63 58.80 58.48 58.64
43.91 39.46 37.08 45.05 49.10 52.01 51.63 48.43 56.81 56.39 55.48 54.66 55.87 53.57 53.10 56.04 58.65 58.24 57.43 57.05 56.21 56.30 56.53 55.41 55.41 56.12 54.78 54.98 55.94 57.43 56.75 57.15
43.15 42.01 44.14 48.03 50.40 51.75 44.36 46.29 57.00 57.80 55.41 56.42 55.57 56.77 57.12 58.49 57.95 58.61 57.05 55.39 55.42 54.27 54.23 54.29 55.27 56.47 55.67 56.73 55.23 56.18 56.84 57.03
41.39 40.27 37.72 51.21 51.36 46.82 49.46 53.76 56.12 56.08 54.12 52.85 54.40 56.54 56.24 56.50 56.48 54.55 53.45 52.83 52.79 52.02 52.05 53.19 54.64 54.48 53.07 51.99 54.19 55.39 55.92 56.25
44.20 44.27 49.75 51.63 50.53 52.58 53.03 53.38 55.21 55.76 54.67 53.82 54.99 54.64 54.58 52.96 53.83 53.89 53.50 54.20 54.19 52.68 52.28 54.25 55.11 55.98 54.29 53.46 54.25 54.50 54.38 54.24
45.65 47.36 48.74 50.76 52.57 53.19 53.98 54.29 55.39 56.42 54.91 54.24 53.68 53.49 51.96 52.29 54.28 54.96 55.16 54.52 54.68 54.28 53.47 52.62 53.32 53.51 53.49 53.23 53.57 53.49 52.96 52.96
45.53 47.55 49.07 50.12 51.05 50.77 54.30 55.66 55.39 55.75 54.54 53.16 52.32 52.06 52.46 50.78 50.95 53.44 53.73 53.74 54.24 53.73 52.73 51.80 52.10 52.05 52.37 52.61 53.02 51.78 51.41 51.27
46.12 47.91 49.09 48.68 50.92 51.54 53.10 54.62 55.74 54.32 53.25 54.39 52.34 51.85 52.25 51.79 51.34 50.55 50.50 51.19 52.11 52.77 52.43 51.29 50.38 50.31 51.31 51.91 51.82 50.87 49.98 49.88
48.66 50.27 50.14 50.73 51.90 52.24 51.01 52.38 53.93 54.55 54.49 52.98 53.98 54.19 52.98 52.11 51.70 51.15 50.63 50.54 50.70 50.44 51.36 50.83 50.73 50.49 51.15 51.38 50.89 50.21 49.14 48.73

GFSFLT2_sfc_wetblb_102.txt.gz
Wetbulb
53.48 54.16 54.26 53.08 51.28 55.43 49.59 53.36 49.98 53.34 55.89 60.94 62.81 64.24 65.20 65.79 66.61 67.12 66.86 67.92 69.67 71.41 72.70 72.91 73.47 74.31 74.54 74.76 75.37 75.55 75.37 76.13
52.24 53.92 53.97 52.55 54.22 49.97 51.56 45.76 44.88 50.92 52.44 55.76 60.25 62.18 64.55 64.64 66.04 66.44 66.64 67.02 68.53 70.68 72.04 71.68 73.56 74.40 74.09 75.23 75.28 75.40 75.15 75.53
52.18 50.22 49.71 50.44 49.69 50.73 51.32 50.76 46.42 46.43 50.58 61.51 61.43 63.87 64.70 65.60 67.10 67.28 66.75 68.12 68.10 68.88 72.13 73.29 74.06 73.49 71.73 74.75 75.20 75.07 74.95 75.14
49.02 53.28 54.21 53.72 51.07 51.57 46.90 47.06 50.24 50.43 53.71 63.22 63.80 64.73 65.72 67.05 67.57 68.13 67.99 68.69 69.10 68.43 68.94 70.66 71.47 71.15 71.07 72.11 73.24 74.70 75.16 75.40
47.10 50.71 53.12 51.03 52.38 53.06 52.40 51.75 49.27 46.78 49.30 62.76 64.24 64.63 65.27 66.33 68.18 69.01 68.64 69.26 70.15 70.89 70.09 70.79 69.75 68.96 69.42 70.96 72.75 73.22 75.14 74.61
45.10 47.57 51.28 49.45 50.88 52.67 51.73 48.01 48.79 49.86 51.50 59.73 61.36 63.26 64.93 64.95 65.92 67.63 68.17 68.30 69.36 70.24 70.24 71.58 71.41 70.87 69.37 69.77 71.66 72.68 73.90 74.54
49.94 49.94 49.67 50.48 50.18 50.80 50.54 51.18 48.82 50.70 51.92 55.62 62.28 63.83 65.19 65.08 64.89 65.68 66.13 67.23 68.07 68.46 69.45 70.71 71.04 71.19 70.90 69.25 69.09 69.70 71.07 70.80
47.93 49.88 50.39 48.64 49.94 50.50 51.92 52.28 51.57 52.29 52.90 61.25 64.41 65.57 64.63 64.22 63.89 63.98 65.54 66.82 68.37 68.93 69.56 69.98 70.78 71.09 71.05 71.05 70.22 71.21 68.73 68.33
44.74 49.46 49.20 46.34 50.06 50.14 51.43 54.44 54.15 50.76 55.87 62.18 62.71 63.31 63.74 64.18 64.48 64.37 64.65 66.06 68.02 69.06 69.39 70.33 71.45 71.65 71.49 70.94 70.80 70.57 68.72 68.62
45.50 48.04 40.08 49.86 53.74 53.50 51.81 54.47 58.24 58.64 59.77 61.71 62.94 62.70 63.85 64.77 64.24 63.52 63.81 63.40 62.81 63.26 63.27 64.38 67.20 69.55 69.95 69.96 70.15 69.96 69.19 68.80
43.92 44.24 47.00 48.56 51.13 50.73 50.15 52.93 58.50 59.18 59.93 60.50 61.13 60.88 59.44 62.30 63.25 62.97 62.64 61.81 60.47 61.25 60.28 59.55 59.34 61.95 63.02 62.61 63.80 64.49 64.19 66.18
46.25 41.12 39.43 47.44 52.05 54.64 53.83 49.31 58.02 59.26 58.20 58.28 58.44 55.07 57.57 61.69 63.28 60.99 60.51 59.18 58.05 57.33 57.43 57.34 56.58 58.64 57.75 59.10 59.96 60.01 60.91 61.10
43.49 43.35 46.66 52.60 53.54 54.97 46.25 48.53 57.65 57.82 58.19 58.29 57.31 58.08 61.82 62.43 60.73 59.10 57.63 56.67 56.44 55.49 54.77 55.83 57.13 57.37 56.33 55.90 56.53 59.11 60.75 62.99
46.34 43.26 40.61 54.81 54.55 50.28 54.31 56.63 58.47 58.48 56.85 55.49 57.20 59.48 60.69 58.10 56.36 54.80 53.38 53.21 53.54 53.13 53.22 54.62 55.40 56.20 55.84 55.71 58.09 60.13 61.71 61.83
48.20 48.19 53.95 56.04 55.35 57.83 58.18 55.84 58.48 58.85 55.95 57.19 57.58 58.66 58.74 54.72 53.82 53.12 53.06 52.65 52.90 52.80 53.11 54.47 57.42 57.26 54.45 55.57 59.02 59.78 60.08 60.19
50.04 51.47 52.45 54.21 56.64 58.75 59.19 58.43 59.72 59.92 57.13 57.12 57.58 57.17 57.26 54.93 53.35 53.18 53.54 53.22 53.97 53.99 52.63 52.62 54.87 55.42 56.89 56.63 57.86 58.66 58.66 58.79
49.77 51.73 52.93 54.01 55.38 57.24 58.95 59.67 58.87 59.39 58.73 54.68 56.53 54.31 53.54 52.91 53.72 54.57 54.38 55.31 55.44 54.68 53.26 53.18 54.33 54.56 54.91 55.45 57.29 56.94 57.07 56.99
48.81 53.52 54.03 53.12 54.56 56.58 57.26 57.90 58.69 57.85 56.42 54.15 53.84 52.34 52.53 52.82 52.75 53.80 53.33 55.59 55.54 55.36 53.95 53.52 53.22 53.28 53.89 54.86 56.81 57.21 56.16 56.26
53.05 55.06 55.31 55.13 55.39 55.48 55.86 57.03 58.03 58.65 58.31 56.48 56.02 54.28 54.02 52.62 52.72 54.52 54.60 53.17 53.77 54.47 55.29 54.52 53.97 53.54 54.06 54.86 55.66 55.96 55.90 55.78

GFSFLT2_sfc_wetblb_105.txt.gz
Wetbulb
55.09 55.98 57.07 54.28 53.28 57.68 53.42 50.22 49.07 53.05 57.71 60.02 64.56 64.21 65.75 67.24 67.88 66.94 68.35 66.58 67.08 70.56 72.13 71.86 73.35 72.18 74.46 75.06 75.52 75.74 75.71 76.26
53.40 54.86 54.89 54.70 56.72 51.32 52.73 45.85 45.43 50.44 52.84 55.31 59.41 62.22 64.38 66.02 67.28 68.48 69.02 68.31 69.31 69.01 70.44 72.62 73.05 73.87 74.16 74.75 75.21 75.47 75.39 75.56
52.95 51.31 50.85 51.17 50.98 52.56 53.72 52.21 47.52 46.92 51.00 61.24 62.12 63.89 64.93 66.22 67.38 68.63 67.61 67.75 67.61 70.07 69.76 73.26 73.87 72.97 73.79 73.39 75.08 74.76 75.34 75.54
50.86 54.18 54.12 53.70 51.67 52.05 48.39 48.83 51.20 50.54 51.44 64.20 64.70 65.23 66.29 66.77 67.58 69.46 68.95 68.98 67.51 68.41 70.71 72.94 73.76 74.68 74.75 75.76 73.64 74.83 74.13 76.08
48.44 51.81 53.50 51.32 53.33 53.15 52.33 52.02 49.98 47.88 52.22 64.14 65.68 66.16 67.03 66.85 68.33 69.53 70.09 69.41 69.24 69.50 70.05 73.03 74.59 74.66 74.25 74.64 73.78 74.26 75.82 75.69
44.11 48.14 51.53 50.54 51.04 52.84 52.40 49.32 49.66 50.53 53.97 61.18 62.62 64.54 66.76 68.04 69.17 69.24 69.46 69.59 70.05 70.17 70.25 69.52 69.82 70.95 72.19 72.33 72.70 73.23 73.15 74.78
51.03 51.49 52.34 51.31 51.02 51.34 51.31 52.25 50.04 51.87 52.47 56.08 62.68 64.43 66.50 68.05 68.36 69.16 68.65 68.88 69.48 69.23 71.53 72.37 72.33 71.85 72.50 71.13 71.88 70.92 71.64 72.56
49.64 50.74 51.19 49.98 51.92 52.42 52.12 52.28 52.06 52.58 52.74 60.05 65.71 67.21 67.47 66.62 65.59 66.05 66.79 67.94 70.10 70.42 71.12 71.34 72.16 72.47 72.29 72.02 72.57 71.42 70.99 71.83
45.96 49.47 50.02 46.59 50.56 51.68 52.11 53.43 53.43 50.89 54.72 62.20 63.09 64.45 66.29 66.06 65.15 65.17 67.17 67.73 68.81 69.53 70.23 71.10 72.16 72.50 72.12 71.76 72.00 72.17 69.90 70.52
46.59 48.00 41.27 50.59 55.46 55.26 52.62 54.79 55.37 57.66 56.94 62.51 63.78 66.24 66.91 67.41 65.49 65.34 65.81 67.43 67.95 67.88 68.56 69.57 72.15 73.07 73.41 72.96 72.55 71.42 71.52 70.86
45.50 44.71 45.75 50.16 52.95 53.08 51.92 52.60 58.52 59.09 60.38 61.74 65.20 64.96 61.97 64.86 65.57 65.39 64.97 64.40 63.23 64.12 64.58 64.01 66.23 70.13 71.59 71.33 71.29 70.95 70.58 71.22
47.90 43.25 41.08 47.84 52.65 56.35 55.76 48.78 57.94 57.79 60.44 60.80 62.13 58.15 61.77 63.60 63.65 63.98 62.25 61.48 60.17 59.65 59.60 58.38 58.80 62.51 62.67 62.65 64.79 64.41 65.64 67.55
45.53 44.48 47.40 52.53 54.47 55.07 46.92 50.37 58.47 60.08 59.90 59.02 59.50 60.19 63.94 64.21 61.96 60.91 58.56 57.66 57.28 55.93 55.99 57.36 58.03 58.12 57.31 57.84 58.45 61.09 62.51 63.42
47.81 42.93 39.84 56.02 55.54 51.33 55.91 58.75 59.31 60.09 59.97 59.06 58.89 60.40 59.21 58.08 56.94 56.06 54.72 54.55 54.54 54.08 54.41 55.78 56.65 56.61 55.94 56.09 58.54 60.55 62.10 63.15
46.10 48.54 55.55 57.95 57.33 59.44 59.44 57.41 59.67 60.49 59.95 60.01 58.80 56.91 57.12 54.53 53.92 53.14 52.69 52.88 53.90 53.98 54.61 56.43 56.81 56.46 54.41 56.37 59.27 59.66 60.57 62.24
50.81 52.80 54.53 56.20 58.76 60.38 60.76 59.92 60.90 61.65 59.82 58.23 54.89 54.39 53.38 53.47 53.07 53.28 53.65 52.91 53.51 53.38 52.81 53.14 55.57 56.11 56.23 57.96 59.20 58.70 58.65 60.41
50.31 52.43 54.57 55.40 57.06 59.26 60.54 60.77 60.46 61.04 60.06 55.93 53.88 52.86 52.77 53.35 54.09 54.52 54.37 55.04 55.05 53.56 52.64 52.68 54.73 54.97 56.09 56.45 58.72 58.89 59.70 59.62
49.82 54.99 55.31 55.03 56.74 58.44 58.50 59.71 58.81 58.71 57.97 57.21 54.04 52.98 53.27 52.58 53.72 53.14 54.61 55.84 54.70 54.18 54.60 54.23 53.99 54.16 55.26 56.18 56.06 57.31 58.01 58.13
55.54 57.19 57.25 57.34 57.25 57.63 57.40 58.42 60.26 59.86 58.90 55.43 54.61 54.91 54.48 53.10 54.22 54.14 53.69 53.68 55.02 55.34 55.12 54.95 54.59 53.91 54.23 55.21 57.12 56.47 55.13 55.79

GFSFLT2_sfc_wetblb_111.txt.gz
Wetbulb
52.43 52.48 52.15 49.28 47.96 52.97 47.33 48.48 43.13 49.15 52.28 58.81 59.94 59.10 60.72 60.59 61.48 62.00 64.20 64.89 65.96 66.70 68.38 68.79 69.15 71.18 72.27 71.74 71.36 71.87 72.64 72.52
51.36 52.63 52.07 52.08 52.23 43.56 44.71 41.33 40.83 46.76 48.23 50.92 55.22 57.89 59.77 60.29 59.63 61.33 63.41 63.46 65.69 66.35 67.79 68.99 68.88 70.49 72.93 72.74 71.70 71.81 72.94 72.66
50.42 45.64 45.03 46.04 44.54 45.50 45.55 44.61 42.01 43.09 46.17 55.74 55.54 58.25 58.57 60.92 62.59 62.32 62.45 63.68 63.82 65.26 67.59 68.20 69.23 70.57 71.28 72.09 72.64 72.12 72.15 72.65
45.53 51.38 51.60 48.20 45.14 45.66 40.81 40.48 44.17 44.96 46.98 57.41 58.21 59.64 60.43 59.57 62.24 64.15 64.25 64.25 64.61 66.68 67.09 68.25 68.85 68.60 70.01 69.98 71.53 72.12 72.07 72.59
43.70 47.66 51.63 45.05 46.80 45.91 44.33 41.84 39.78 39.47 45.64 58.34 58.01 56.96 61.26 60.82 63.23 64.92 65.35 63.98 66.90 67.84 66.86 67.79 67.74 67.54 67.58 68.33 70.93 71.96 72.19 72.86
37.07 42.43 48.32 46.66 49.70 49.38 44.44 38.23 40.12 41.46 50.93 53.93 55.69 56.17 57.77 57.77 59.36 65.59 64.83 64.16 66.55 66.89 66.70 67.62 65.90 65.84 65.84 66.55 68.61 70.83 72.33 71.53
46.22 49.32 50.28 48.63 49.05 49.79 46.41 45.84 41.48 46.96 52.96 54.62 57.21 58.36 60.30 59.85 63.44 64.86 64.36 64.97 66.22 66.23 66.14 65.75 65.19 65.92 67.18 67.39 67.83 70.26 69.67 70.55
44.04 49.26 49.67 48.65 50.21 50.42 50.13 50.69 47.95 52.86 52.77 56.99 59.58 62.56 61.06 61.04 64.49 64.89 65.16 65.76 66.50 67.23 67.69 64.65 64.60 64.60 66.15 64.85 67.26 71.14 69.23 69.45
39.56 47.04 47.42 42.58 49.58 50.54 50.39 53.81 53.11 51.35 55.71 58.88 55.90 56.56 59.21 57.79 62.60 63.78 64.16 64.74 66.91 67.52 68.91 69.10 67.06 64.99 68.30 68.53 70.51 69.89 68.80 69.16
40.54 43.40 35.58 47.50 52.40 53.03 53.13 55.19 55.57 55.83 58.59 56.87 55.94 56.49 59.58 63.31 62.85 61.12 60.72 60.14 62.03 63.38 64.20 65.49 70.04 69.90 70.55 70.11 69.94 69.40 68.71 69.83
39.07 38.85 44.04 48.93 51.17 50.12 49.75 50.56 55.93 55.97 55.33 58.48 58.84 59.59 59.25 61.01 59.71 59.54 59.55 59.53 60.29 60.57 61.62 62.84 64.31 67.72 69.68 69.61 69.10 69.09 68.64 68.94
42.61 38.41 37.30 46.62 52.15 53.89 52.22 45.40 56.58 57.55 57.13 57.54 57.52 52.54 57.75 59.06 58.12 57.48 56.42 56.58 57.32 58.78 59.20 59.49 61.26 64.00 64.53 66.20 66.77 67.86 68.62 68.60
41.26 39.08 45.00 50.28 53.59 54.90 40.46 44.71 56.09 56.45 57.80 56.58 54.00 55.50 56.40 56.71 55.23 55.58 55.58 55.19 56.32 56.96 56.58 58.27 59.68 60.58 59.81 61.44 61.50 62.97 65.61 68.01
41.16 39.28 37.65 52.36 53.14 47.99 50.34 53.46 56.80 57.29 58.02 56.22 55.49 55.03 53.89 53.93 53.41 53.68 53.50 54.36 55.11 54.62 54.94 55.98 58.03 59.24 58.51 58.37 60.22 62.11 62.37 62.94
44.49 43.82 50.34 53.35 52.67 53.34 54.28 56.47 57.00 55.33 54.60 53.34 52.81 52.56 52.38 51.75 51.97 52.24 53.10 53.45 53.98 53.69 53.75 54.75 55.96 56.42 56.30 57.72 59.06 60.05 60.09 60.42
46.48 48.63 51.46 52.51 56.44 56.35 58.11 57.05 57.00 56.23 54.52 53.22 52.09 52.16 51.76 51.42 51.27 51.87 52.34 52.26 53.24 52.47 51.76 52.14 53.67 54.22 56.18 57.18 58.20 58.19 58.21 58.88
47.11 48.52 50.63 53.57 56.31 57.82 58.66 57.99 56.76 56.24 54.62 53.11 52.62 51.76 51.67 50.59 52.45 53.09 52.74 52.47 51.67 51.63 51.96 52.12 53.32 53.58 54.66 55.85 57.20 56.66 56.55 56.92
45.12 49.76 50.81 52.07 55.65 59.04 57.50 57.16 56.58 55.40 53.98 54.35 52.51 51.46 52.67 51.86 52.58 52.92 52.31 52.48 52.20 52.07 51.15 51.07 51.84 52.24 52.69 54.23 55.80 54.88 54.52 55.11
51.35 54.70 53.09 54.61 55.85 59.01 57.69 57.76 57.42 55.65 54.85 53.37 53.31 52.43 51.69 50.86 51.05 53.15 53.13 52.65 51.45 51.28 51.92 52.36 51.55 51.37 52.86 53.88 53.92 51.72 51.28 49.62

GFSFLT2_sfc_wetblb_114.txt.gz
Wetbulb
53.55 55.13 57.03 51.66 47.57 52.85 44.92 46.99 44.08 47.96 51.02 56.45 58.67 57.68 58.23 59.63 61.60 61.48 62.69 64.63 64.87 65.73 66.37 67.41 68.13 70.07 70.13 69.88 69.40 69.76 69.58 70.32
51.76 51.34 56.49 52.00 52.59 42.61 42.92 39.93 39.11 45.55 47.59 49.19 54.55 56.37 57.68 57.82 59.58 60.92 63.48 64.48 65.37 66.43 67.03 67.56 68.62 70.21 71.33 70.73 70.33 70.65 70.07 70.93
46.57 43.16 43.97 44.29 42.44 42.06 43.64 45.09 40.41 40.65 45.13 55.40 55.75 57.66 58.83 59.35 59.99 60.34 63.02 64.33 65.08 66.33 67.20 67.83 69.04 70.36 71.10 71.09 70.22 70.58 71.42 71.14
43.04 48.59 50.43 45.52 42.25 41.61 38.59 38.91 41.35 43.07 43.27 56.98 57.70 58.52 60.01 61.23 62.79 60.55 63.15 64.35 64.87 66.25 66.58 67.56 69.19 70.56 71.32 71.53 70.96 70.83 72.16 71.52
40.96 44.48 48.46 45.60 46.84 43.51 40.54 37.89 37.31 36.96 40.31 56.58 56.49 55.78 58.49 58.71 61.93 64.08 62.56 62.98 64.24 65.60 66.20 67.29 67.86 69.57 71.03 70.81 70.97 70.96 71.60 70.89
35.71 40.69 45.03 44.26 47.04 46.53 40.24 35.79 36.20 39.62 43.55 52.77 56.97 57.99 59.97 62.42 58.26 61.72 64.31 62.53 63.18 64.80 66.47 67.23 67.50 68.38 68.52 68.15 68.33 68.84 70.14 70.76
47.11 46.86 48.82 48.12 47.01 48.24 42.83 43.83 39.59 44.96 50.33 53.33 58.19 57.28 57.52 60.37 60.60 61.88 62.99 62.51 64.60 64.87 65.85 66.65 66.71 66.93 67.32 68.40 68.50 68.66 68.50 69.27
40.80 47.53 47.40 47.48 49.71 52.38 52.34 51.77 52.67 53.31 52.73 57.37 59.03 59.57 58.42 60.89 60.60 59.38 60.81 61.25 65.69 65.42 66.09 65.13 65.38 65.26 66.04 66.20 67.91 69.44 68.39 69.03
36.82 45.67 44.36 41.95 49.10 51.75 51.89 54.63 53.52 49.94 53.59 56.05 55.35 58.57 60.01 60.64 60.89 59.79 60.35 60.95 61.25 65.13 65.62 65.18 65.64 65.93 65.84 65.37 66.08 68.23 68.89 69.16
37.08 38.95 34.29 43.43 51.89 54.46 52.63 53.89 54.78 55.60 53.59 54.49 57.71 59.01 59.19 59.89 58.87 59.96 60.67 60.48 60.36 61.24 62.64 63.45 65.73 65.54 66.93 66.01 66.28 68.71 68.58 68.69
35.47 35.37 41.47 47.24 48.43 48.31 49.46 50.50 55.80 55.33 56.67 56.00 57.47 58.11 55.64 57.82 57.90 56.95 58.03 59.27 60.00 60.90 61.21 62.59 63.13 66.29 68.26 67.97 68.49 68.10 68.01 68.53
39.14 36.47 34.46 43.61 49.90 53.73 51.57 44.42 55.42 56.42 55.13 54.75 55.63 50.77 53.97 55.65 55.57 55.91 55.97 56.36 57.21 58.89 59.77 60.94 60.10 65.07 65.37 66.50 67.33 67.83 67.74 67.88
40.05 38.92 43.60 50.02 50.73 52.79 40.99 43.58 54.76 56.57 54.62 52.39 52.82 54.72 55.00 54.80 54.40 54.60 55.03 55.17 56.19 56.17 56.08 58.61 59.83 61.70 60.98 61.55 61.97 64.39 67.81 68.42
40.59 38.58 36.05 51.21 51.40 46.95 48.79 51.09 55.77 56.17 55.31 54.71 54.03 53.29 52.89 52.97 53.19 53.48 53.06 53.94 55.03 54.89 55.28 56.51 58.74 59.31 58.63 58.47 60.34 62.43 63.74 63.78
41.50 41.72 47.22 50.12 49.87 52.50 52.77 54.85 54.03 55.13 54.00 52.77 51.50 51.52 51.40 51.91 51.94 52.14 52.61 52.93 53.42 53.42 53.68 54.93 56.34 58.01 57.37 58.39 60.37 60.37 58.79 57.21
43.64 46.23 48.05 51.27 52.63 56.74 55.64 55.15 55.15 54.30 52.77 50.98 51.49 51.73 51.40 51.39 51.53 51.25 51.98 51.98 52.88 52.28 51.52 52.15 53.64 54.96 56.09 57.06 58.60 59.18 58.05 55.39
43.20 46.63 48.87 51.54 54.33 56.82 56.58 55.72 54.26 53.78 52.82 50.80 51.27 51.07 51.20 51.48 51.91 51.82 51.41 51.47 51.54 51.27 50.91 51.67 52.54 53.47 55.16 56.22 56.43 56.52 57.44 56.01
41.51 46.76 46.55 48.74 53.71 57.64 55.66 54.32 53.60 52.63 51.72 52.23 50.06 49.20 51.33 51.82 51.97 51.76 51.16 51.12 50.16 49.34 49.98 50.52 49.70 50.93 51.93 54.09 55.29 54.56 54.37 56.23
48.99 50.13 50.87 53.00 57.41 58.27 55.73 55.35 54.77 53.23 52.65 51.06 50.80 50.16 49.46 48.03 48.73 52.60 52.30 49.19 50.07 50.16 51.40 50.81 50.42 51.12 51.65 52.90 50.75 49.01 49.09 50.77

GFSFLT2_sfc_wetblb_117.txt.gz
Wetbulb
57.06 56.83 55.38 51.04 45.87 49.59 46.16 43.57 43.30 48.29 51.51 55.05 58.23 57.54 57.77 57.64 61.08 61.65 62.86 63.74 64.52 65.16 65.95 66.42 67.62 68.26 68.24 67.72 67.85 68.51 68.26 69.05
50.78 57.27 56.66 51.40 52.52 44.43 44.00 38.05 37.74 44.65 46.92 48.19 53.04 54.60 56.07 57.27 59.03 61.06 63.05 63.85 64.06 64.93 66.03 66.93 67.87 69.06 69.02 68.80 67.73 69.02 68.60 69.03
44.94 43.16 49.36 43.70 42.10 41.13 42.97 42.22 38.36 39.21 43.69 54.02 53.52 56.23 55.75 57.07 59.70 61.50 62.31 64.04 64.35 65.09 66.07 67.14 68.13 68.84 69.09 69.22 68.77 68.69 68.88 68.98
41.20 46.82 47.78 46.99 40.86 39.84 38.22 37.41 38.30 39.97 39.60 54.57 57.04 57.61 59.73 59.69 61.27 61.20 62.81 63.77 64.65 65.65 66.39 66.93 66.84 67.79 69.09 69.69 69.36 69.85 69.86 69.54
39.04 42.40 46.61 45.35 44.67 41.05 37.49 35.79 34.77 35.55 39.00 58.20 58.99 60.28 61.58 59.95 60.05 62.15 62.94 64.01 64.22 65.10 66.05 66.31 66.71 67.72 68.79 70.27 69.82 70.13 70.42 70.34
38.15 38.40 42.41 44.16 45.90 44.47 38.82 37.11 36.84 37.28 47.25 54.88 55.22 57.47 57.43 60.17 61.62 61.46 62.84 62.61 62.77 63.39 64.99 66.89 67.95 68.93 69.54 70.24 70.58 70.42 70.78 70.58
44.99 45.20 44.95 46.01 48.52 50.17 45.75 43.79 39.21 45.88 50.91 54.17 57.06 56.34 58.40 58.70 60.55 60.99 61.62 63.19 64.25 62.87 65.44 66.56 67.57 68.79 70.23 70.24 70.21 70.60 70.23 70.25
42.23 47.25 48.02 48.49 50.70 50.88 51.38 51.99 51.97 52.48 51.40 54.93 59.25 59.69 59.33 59.56 59.06 58.31 60.30 62.15 63.91 64.76 65.61 66.26 67.08 67.77 68.69 68.56 69.05 69.40 69.60 70.20
35.89 42.58 46.14 41.65 47.16 50.04 50.61 53.68 51.78 45.74 50.45 55.92 56.67 56.26 57.15 57.80 59.31 59.20 59.88 60.71 62.08 63.50 64.83 64.77 64.95 65.70 65.97 66.38 67.71 68.00 68.32 68.90
35.70 39.13 35.15 44.71 50.83 54.19 51.92 52.77 53.89 52.07 54.21 56.18 56.10 55.84 56.38 57.22 56.30 57.19 56.24 59.03 60.19 61.34 63.56 64.22 65.04 65.83 66.47 66.13 66.25 67.37 67.62 68.50
34.89 33.32 40.14 46.51 48.08 48.03 46.53 50.51 54.09 54.12 53.79 55.35 57.06 56.18 54.81 55.89 56.52 55.90 56.20 56.94 58.29 59.55 60.32 61.79 63.66 66.03 66.60 66.57 66.24 67.01 67.30 67.73
36.22 34.64 33.64 42.65 49.72 51.92 51.16 46.13 54.02 55.02 53.79 53.63 53.99 49.70 52.79 55.00 55.33 55.23 55.76 56.12 56.08 57.02 58.25 59.17 60.52 63.96 67.19 66.64 67.68 66.62 67.19 67.37
36.76 34.88 40.50 49.05 50.43 53.06 40.99 41.94 53.50 55.13 53.40 50.27 50.82 52.92 54.42 54.92 54.18 54.60 54.61 54.93 56.04 56.28 56.18 57.11 59.76 62.45 61.67 62.84 62.66 63.86 68.07 68.07
36.69 34.01 33.75 50.07 50.11 45.25 47.95 51.32 55.10 54.16 54.05 53.63 53.89 53.57 53.23 53.48 53.40 53.21 53.15 53.98 54.74 55.00 55.34 56.48 58.85 59.83 59.60 59.09 60.81 62.75 63.50 63.16
39.54 39.11 46.15 49.02 50.00 51.00 52.21 54.02 54.65 53.47 53.08 54.13 52.71 51.85 51.85 51.95 51.99 52.16 52.34 52.76 53.56 53.54 54.03 54.93 56.70 58.48 57.61 57.99 59.33 57.61 58.63 58.13
41.92 44.19 46.80 49.76 53.31 54.90 56.21 55.19 54.41 53.38 51.69 51.90 50.79 51.71 51.51 51.52 51.47 51.19 51.54 51.76 52.31 52.41 51.35 52.15 53.69 55.16 56.52 58.30 58.90 56.72 55.54 55.68
42.00 45.01 47.60 49.60 52.04 55.23 54.62 54.11 53.05 52.82 51.63 50.82 50.84 50.93 51.31 51.17 51.04 51.18 51.01 51.18 51.06 50.84 49.95 50.70 51.71 52.45 54.61 55.80 56.89 56.50 54.55 53.17
41.41 46.71 46.45 47.83 53.12 55.67 53.71 52.81 52.14 51.24 50.60 50.40 48.94 47.97 48.56 47.83 51.00 50.75 50.42 50.58 49.31 48.06 48.56 49.39 49.03 49.30 50.21 52.24 54.16 55.53 54.89 53.71
46.03 48.63 48.93 50.96 55.88 56.47 53.99 53.32 52.95 51.71 50.94 49.43 49.31 49.02 48.41 47.38 48.58 51.69 50.14 50.04 49.02 47.48 48.03 49.90 49.50 49.90 50.10 50.61 48.86 47.90 48.21 46.93

GFSFLT2_sfc_wetblb_120.txt.gz
Wetbulb
55.83 56.28 54.67 49.79 45.20 48.66 43.33 46.20 43.20 46.03 50.31 53.79 57.47 56.92 58.21 60.26 60.82 61.00 62.32 62.85 63.48 64.16 64.86 65.38 66.50 67.16 68.03 67.60 67.86 68.51 68.71 69.59
53.23 56.33 54.84 50.66 52.93 43.45 43.28 39.50 38.06 42.85 47.11 46.78 51.88 54.39 55.78 56.28 58.56 61.08 63.11 62.68 63.78 64.46 64.93 65.64 67.30 67.87 68.30 68.31 67.84 68.77 68.51 69.41
45.11 46.07 47.98 45.98 46.37 41.40 44.07 43.35 39.78 37.36 39.65 53.76 54.55 54.79 55.77 57.29 58.95 59.18 62.22 62.74 63.92 64.69 65.49 66.12 67.52 67.95 67.89 67.94 67.85 68.10 68.72 69.18
41.51 45.31 46.12 46.15 41.74 40.61 39.77 37.45 38.49 38.32 38.44 57.32 58.61 59.48 58.58 59.49 59.30 59.66 62.76 63.55 64.37 64.57 65.16 65.77 66.99 67.72 68.18 68.49 68.43 68.51 69.22 69.25
39.22 43.16 44.13 43.28 43.46 39.40 36.01 35.76 35.53 35.12 37.95 57.19 57.66 57.38 58.91 58.43 60.70 60.43 62.66 63.85 64.65 64.63 64.91 65.69 66.53 67.59 68.31 69.04 68.98 69.23 69.25 69.35
35.83 38.98 41.14 41.58 44.88 42.84 37.92 35.30 36.35 36.37 49.69 54.52 55.21 56.68 57.56 58.64 60.47 61.64 62.36 63.76 63.33 64.30 65.07 66.22 66.79 67.11 67.98 68.98 69.93 69.70 69.89 69.76
42.27 45.25 44.59 43.91 47.65 49.67 46.07 43.93 38.02 45.65 50.87 53.32 55.63 57.29 58.54 58.86 59.10 61.29 62.21 63.44 63.20 63.51 64.54 66.09 66.87 67.12 68.04 68.94 70.38 70.18 69.87 70.14
41.32 45.95 48.80 48.03 49.29 49.89 51.24 52.14 51.42 51.40 49.98 55.70 57.99 58.45 57.62 59.62 58.95 58.84 60.68 62.43 64.77 65.03 66.05 66.32 67.06 67.73 69.09 69.75 69.69 70.66 69.79 70.01
33.83 41.68 45.88 41.77 46.29 49.50 50.29 51.71 50.29 45.96 51.47 57.13 55.43 55.99 56.47 56.59 57.04 57.57 58.31 60.07 62.57 64.45 65.04 65.56 65.58 66.24 66.14 66.39 68.54 68.72 68.25 68.92
36.98 36.86 32.53 41.59 51.20 52.86 51.35 52.41 52.23 52.90 54.74 56.19 54.92 55.61 55.85 56.69 55.97 56.15 57.25 57.91 58.84 59.74 61.32 64.36 65.94 65.76 66.40 66.38 66.76 67.91 67.91 68.27
33.95 32.90 38.68 45.76 48.94 48.58 48.92 49.86 54.21 53.08 54.70 55.37 55.65 55.24 54.58 56.07 56.43 55.71 56.17 56.63 57.07 58.15 59.48 60.70 61.81 64.92 66.26 66.33 66.31 66.69 66.89 67.82
35.88 32.48 34.11 42.34 49.39 52.36 52.66 44.51 55.02 55.89 54.47 54.57 56.76 48.67 51.83 55.57 55.53 55.28 55.65 55.95 56.21 57.25 58.55 58.84 59.94 62.41 66.28 66.10 66.28 66.30 66.91 67.57
35.59 34.00 39.12 46.84 50.33 52.20 42.94 43.65 54.84 55.39 54.60 53.14 51.16 52.82 53.61 54.96 54.51 54.61 54.88 55.06 56.53 56.95 56.51 57.13 59.80 62.48 63.43 63.90 63.09 64.61 66.47 67.68
35.39 33.34 33.73 49.67 50.04 44.93 46.65 51.78 56.18 55.00 53.26 52.76 53.54 53.68 53.39 53.42 53.18 53.10 53.10 53.78 54.33 55.28 55.49 56.79 58.43 59.68 59.16 58.76 59.60 62.44 62.57 63.00
38.02 37.85 44.11 47.76 48.04 51.23 52.27 53.74 55.12 53.05 53.26 54.07 52.65 51.98 52.36 52.11 52.15 51.73 52.32 52.63 53.45 53.00 53.80 54.47 56.35 57.81 56.95 57.98 58.42 58.06 58.36 58.06
41.69 42.76 46.42 49.14 52.08 53.39 55.79 55.47 53.94 53.38 54.02 53.65 51.63 52.21 52.06 51.73 51.51 51.23 52.03 51.76 52.54 52.21 51.87 51.71 53.13 55.05 56.67 57.73 57.03 56.47 55.69 54.80
41.58 43.97 46.86 49.04 50.61 54.70 54.40 54.11 52.93 52.47 51.89 51.42 51.00 51.50 51.95 51.27 50.57 49.26 49.88 50.99 51.35 50.72 50.19 50.08 51.43 51.92 53.79 56.43 56.91 55.40 54.85 53.97
40.62 45.07 45.44 46.87 52.52 55.34 53.65 53.10 52.33 51.28 50.49 50.85 49.98 49.12 49.38 48.72 49.60 50.29 48.85 50.32 49.69 49.54 50.28 50.51 50.34 50.57 50.58 52.62 55.91 55.03 52.89 51.92
45.80 47.64 48.76 51.23 55.26 55.63 53.60 53.17 52.67 51.62 50.71 49.44 49.32 49.29 48.17 48.25 48.99 50.88 50.44 49.87 48.49 48.18 49.40 49.88 49.72 49.38 50.50 50.76 49.93 49.43 49.55 52.68

GFSFLT2_sfc_wetblb_123.txt.gz
Wetbulb
58.35 59.25 58.31 53.78 50.59 54.52 48.99 50.31 47.43 49.91 53.96 57.96 59.77 59.41 61.40 62.62 63.05 63.52 64.96 66.03 66.69 68.30 69.41 69.88 70.35 70.88 71.21 71.43 71.86 72.27 72.88 74.14
57.42 59.49 57.07 56.28 57.10 49.92 50.71 42.86 40.36 46.95 49.48 52.16 56.45 58.13 59.95 60.67 61.90 63.26 64.98 64.74 64.90 66.16 68.92 69.91 70.67 71.33 71.84 72.07 71.78 72.16 73.01 73.90
55.38 54.61 53.82 53.40 52.99 51.24 50.64 48.88 44.59 43.99 46.40 57.23 57.39 59.10 59.83 60.10 63.04 64.83 64.64 65.80 66.14 65.52 68.65 69.91 70.43 71.02 71.05 71.85 71.88 71.84 72.50 73.29
47.47 50.97 51.09 54.05 53.29 53.66 48.46 45.28 49.08 47.69 47.71 58.92 59.42 60.25 61.36 61.27 62.44 64.11 65.59 66.08 65.77 66.19 67.13 69.28 69.92 70.57 70.49 71.51 71.79 72.07 72.72 73.04
46.46 49.73 50.77 50.46 51.13 48.96 46.94 47.57 46.64 44.43 47.13 59.73 60.04 60.05 61.66 61.95 63.48 64.10 64.22 65.03 65.31 66.06 66.41 67.76 69.45 68.91 70.99 71.64 71.78 72.45 72.92 72.66
43.94 46.80 49.27 47.98 51.12 50.04 47.60 45.67 46.60 46.41 50.46 56.80 58.31 58.60 59.91 61.33 63.42 64.17 65.44 64.87 64.72 66.42 67.93 68.85 69.57 70.29 71.41 71.68 69.88 72.53 72.63 72.41
48.43 49.42 48.50 51.59 52.16 53.62 51.18 51.82 45.99 49.32 52.28 56.45 57.90 58.47 59.20 60.78 62.35 62.94 64.91 65.53 66.04 67.37 67.37 68.04 69.62 70.38 71.09 71.95 70.83 70.92 72.33 71.52
45.83 48.59 49.81 50.06 51.78 52.23 53.75 53.33 52.99 53.72 52.90 58.46 58.99 60.15 59.31 57.94 58.60 59.33 60.18 61.62 65.87 66.34 66.70 67.12 69.49 70.59 71.11 70.00 69.82 72.90 70.15 71.86
43.23 46.80 48.60 46.05 49.90 50.78 53.15 54.76 54.73 51.37 55.57 59.00 57.02 56.23 56.42 57.39 57.70 57.94 58.70 59.44 60.63 61.76 65.00 68.32 68.53 68.83 71.25 72.08 72.79 71.37 72.38 72.51
43.94 46.05 38.81 48.55 53.79 54.60 53.51 54.31 55.14 55.20 57.80 57.39 55.97 56.22 56.76 57.39 56.66 56.72 57.28 57.92 58.68 59.19 60.97 63.02 64.24 67.96 69.13 70.03 70.99 70.16 70.96 69.70
42.41 42.29 44.92 48.56 52.14 53.20 52.71 52.46 57.10 55.63 56.11 56.38 56.96 57.22 55.87 57.09 56.91 56.50 56.90 57.80 58.92 59.26 59.99 61.19 62.59 63.98 66.15 68.58 69.41 67.90 67.60 68.26
44.61 40.76 37.90 47.60 51.72 54.98 54.71 49.06 57.96 58.23 57.63 56.85 56.76 54.35 55.19 56.17 56.30 56.37 56.59 56.76 57.42 58.36 59.81 61.05 61.69 63.22 64.63 67.11 67.98 67.29 68.81 68.61
44.02 42.66 45.89 50.26 52.95 54.93 46.13 48.51 58.20 59.46 59.22 58.78 56.44 57.83 55.68 56.09 55.46 56.03 55.94 55.80 57.06 57.97 57.93 59.01 60.65 63.16 63.67 64.31 64.38 65.83 67.31 69.07
44.27 42.40 39.53 53.76 52.90 49.48 52.95 56.12 58.11 57.85 56.99 56.83 56.07 55.58 55.22 54.92 54.79 56.47 55.61 55.31 55.70 55.78 55.83 58.19 59.67 59.91 58.59 58.43 61.27 63.83 65.36 63.89
46.83 47.16 51.02 54.45 54.05 55.67 55.57 56.58 58.29 57.73 57.10 56.56 55.54 54.92 54.49 54.09 54.14 54.67 54.90 54.72 55.43 55.55 55.76 57.23 60.04 59.92 58.31 58.03 59.61 59.49 58.73 57.49
48.26 50.51 50.75 54.15 55.60 56.77 58.09 59.23 59.19 58.51 57.25 56.89 54.96 54.60 55.23 55.10 53.54 53.96 54.41 54.78 55.45 55.86 54.91 54.93 58.31 60.04 58.73 58.59 57.70 57.22 55.96 56.14
49.74 51.61 51.88 54.33 55.68 57.81 58.57 58.59 57.72 57.78 57.48 57.04 55.74 55.18 54.61 53.87 53.11 53.70 55.05 55.06 55.38 53.41 52.85 53.49 54.84 55.79 57.12 57.85 57.42 56.32 56.68 55.25
47.93 53.88 54.36 53.56 56.92 59.41 57.86 57.42 57.31 56.25 55.06 55.86 56.13 55.61 55.91 54.36 54.80 54.69 54.53 54.49 53.11 54.09 52.76 53.49 53.12 54.17 55.90 56.90 56.34 54.61 52.75 52.82
53.61 54.38 55.13 56.00 58.52 59.94 58.55 58.09 56.83 55.67 56.34 54.93 55.13 55.63 55.04 54.23 54.39 52.64 53.79 53.75 53.15 52.45 53.83 54.90 54.05 53.76 53.95 55.03 54.81 54.24 54.16 52.26

GFSFLT2_sfc_wetblb_126.txt.gz
Wetbulb
58.59 58.92 57.54 54.63 52.09 55.88 52.16 52.68 50.38 53.23 55.26 60.62 62.01 62.00 63.79 62.94 66.45 67.23 67.48 68.52 68.28 69.78 71.29 72.31 72.89 73.39 73.88 74.05 74.59 74.58 74.07 74.63
58.78 60.56 59.57 58.27 58.78 50.93 52.10 44.90 44.01 48.51 51.46 52.64 59.43 59.90 61.49 62.48 64.25 66.02 68.20 68.47 68.56 69.46 71.02 72.49 73.16 73.77 74.40 74.56 74.36 74.60 74.27 74.47
57.89 56.47 55.32 56.69 55.65 55.06 54.67 52.42 44.64 47.32 50.05 59.21 60.76 61.99 61.45 62.21 64.06 65.59 66.56 68.06 68.95 69.80 71.08 72.37 72.99 73.46 73.71 74.25 74.27 74.19 74.26 74.69
51.09 55.02 57.55 57.86 56.43 55.29 50.03 48.09 52.28 49.24 49.19 61.33 62.03 62.95 63.34 63.37 63.35 65.30 67.01 67.95 68.30 66.61 71.04 71.81 72.66 73.16 73.22 73.95 74.00 74.62 74.68 74.82
48.85 52.63 54.95 53.40 54.87 55.16 55.37 53.24 50.12 46.33 49.37 61.91 63.25 63.11 64.48 64.06 64.98 65.76 67.07 68.61 69.84 68.86 66.91 70.08 71.96 73.54 73.55 74.12 74.06 74.90 75.17 74.65
44.39 47.98 52.38 51.03 53.12 54.43 53.53 49.51 49.07 49.42 51.16 59.47 60.54 61.73 63.03 65.01 66.44 66.57 67.03 66.82 68.85 68.65 67.75 69.13 72.20 73.24 73.87 73.86 74.84 74.85 74.94 74.80
51.14 51.61 51.81 51.70 52.33 53.87 52.45 53.61 50.92 52.08 52.55 59.29 60.77 59.58 60.16 61.10 61.87 64.73 65.19 66.97 68.13 67.14 68.57 67.71 70.04 72.24 71.85 71.88 74.30 73.82 74.35 74.73
49.10 50.50 51.85 51.41 53.11 53.62 54.14 54.59 54.58 54.94 54.53 61.83 62.53 60.98 59.86 59.37 59.61 60.00 60.46 61.63 63.79 67.65 67.73 68.73 69.52 70.73 72.23 71.57 71.10 73.75 70.91 73.03
46.31 49.69 49.29 47.37 51.90 53.18 53.70 55.84 55.74 52.64 58.60 62.41 61.32 59.31 57.70 58.91 59.19 58.89 58.91 59.53 60.65 62.26 64.21 66.10 68.47 70.32 70.90 72.77 74.50 71.29 73.96 72.49
46.46 48.41 41.32 51.37 56.60 56.01 55.18 55.97 57.72 57.47 59.64 61.34 60.58 58.94 59.52 59.54 59.01 58.92 59.01 59.13 59.73 60.12 61.79 65.42 68.58 70.20 69.25 72.08 72.98 73.42 73.77 72.02
44.58 44.19 47.00 49.17 52.45 53.80 53.09 53.33 58.24 58.50 60.43 60.23 59.43 60.28 58.35 58.90 58.24 58.26 58.43 59.17 60.04 60.49 60.98 63.01 65.59 67.68 69.22 70.09 70.40 71.68 71.72 72.92
47.38 42.46 40.49 50.66 55.66 58.19 58.31 49.71 60.10 60.83 60.55 60.31 60.71 57.92 56.96 57.89 57.75 58.39 59.35 59.24 60.31 61.61 62.84 62.26 63.05 67.06 68.63 68.18 68.88 69.78 71.22 70.39
46.56 44.95 47.81 54.50 56.05 58.11 47.64 51.18 60.63 61.41 61.39 61.19 60.45 60.52 59.20 58.39 59.50 59.14 59.16 58.76 60.75 60.86 61.17 61.24 61.87 65.86 64.86 65.20 64.26 67.02 70.32 71.48
47.10 44.11 41.74 56.12 55.63 51.63 56.34 59.94 59.80 62.04 61.75 61.81 59.42 58.89 58.05 58.34 58.14 59.76 59.20 59.48 59.82 59.90 62.98 62.10 61.54 60.37 59.59 61.53 64.27 67.06 68.93 67.20
48.59 48.98 55.72 58.02 57.29 59.82 59.11 58.83 61.34 60.72 60.79 60.68 59.52 58.93 58.91 56.75 58.91 58.22 57.32 57.94 57.93 59.27 61.07 63.13 62.64 61.60 58.79 59.07 60.32 61.69 61.74 60.41
50.68 52.95 54.71 57.15 58.95 59.41 60.03 60.43 62.42 61.94 61.09 60.56 59.51 59.32 58.53 57.57 57.95 58.81 56.97 57.44 58.52 58.92 58.81 60.50 61.93 61.68 60.48 59.45 59.88 58.23 58.33 59.78
52.32 54.90 56.18 57.39 58.70 59.59 60.76 62.61 62.38 61.75 61.06 60.12 59.50 58.70 58.23 57.55 56.82 55.96 58.38 59.94 58.61 57.51 59.48 59.71 59.81 60.36 61.00 60.53 59.00 59.01 58.26 57.24
48.70 55.30 55.50 55.82 59.79 61.13 61.70 61.59 61.62 60.64 59.10 58.92 59.65 58.94 59.02 58.73 58.11 58.60 58.60 58.69 58.63 58.24 56.86 57.39 58.12 59.36 60.15 59.97 59.19 58.14 58.03 55.63
55.47 58.84 58.13 59.70 60.79 62.93 61.80 61.32 61.26 60.19 59.79 58.89 60.06 60.11 59.58 58.80 59.18 56.38 58.11 57.67 57.59 57.82 58.62 58.33 58.13 57.05 58.58 59.64 61.04 58.33 54.46 53.59

GFSFLT2_sfc_wetblb_129.txt.gz
Wetbulb
56.15 55.95 56.01 53.92 52.85 56.89 50.88 53.10 50.95 48.22 57.95 61.69 62.74 63.17 63.77 63.51 64.66 67.11 67.53 67.78 68.66 69.27 70.47 71.63 72.29 73.35 73.99 74.80 75.46 75.78 74.99 75.56
55.88 58.12 58.69 55.71 57.69 51.92 51.38 44.54 44.47 51.37 49.53 51.38 59.56 62.39 63.34 63.95 65.16 66.17 66.88 68.48 68.97 69.22 70.20 71.65 72.65 73.37 74.36 74.95 75.41 75.80 75.25 74.96
55.17 54.88 53.67 55.30 53.40 53.95 54.77 55.07 48.68 47.93 48.25 59.10 62.26 63.61 62.20 63.03 64.92 64.95 66.64 69.10 69.49 69.15 70.58 71.85 72.63 73.37 73.76 74.59 74.98 75.36 75.17 74.78
51.62 55.05 54.98 52.02 52.13 54.52 51.26 48.38 47.73 45.09 49.71 62.79 64.56 65.17 65.18 62.80 63.49 65.43 65.53 69.94 70.18 70.05 70.46 71.84 72.69 73.19 73.53 74.27 74.66 75.27 75.61 75.41
48.84 52.40 55.84 51.48 53.20 52.55 51.57 53.09 49.76 47.14 50.75 61.97 64.21 65.29 65.95 64.96 62.94 63.18 65.23 67.60 69.17 70.88 71.25 71.75 72.62 74.64 73.75 74.43 74.44 75.25 75.76 75.09
46.40 47.30 52.90 52.09 53.15 54.08 51.32 48.07 46.13 49.21 48.24 59.56 61.71 63.07 65.46 65.11 65.37 64.18 66.96 67.84 68.46 70.89 71.46 71.41 73.03 74.00 74.99 74.60 75.91 75.33 75.52 75.39
52.64 52.53 53.06 51.60 48.96 50.22 52.83 53.28 49.23 51.47 52.70 59.01 62.27 62.19 62.64 62.82 65.41 65.51 65.64 66.24 69.86 69.59 69.85 69.65 71.87 74.22 74.93 75.46 75.72 76.05 75.94 75.64
50.05 52.09 51.79 49.89 51.64 53.09 53.20 54.40 51.15 52.25 49.72 63.11 63.77 63.12 61.57 61.58 61.86 62.11 62.97 63.37 64.76 66.37 69.30 68.83 69.35 70.88 74.03 74.49 74.68 75.73 74.43 71.86
47.70 50.63 51.32 48.17 50.88 51.65 54.44 54.92 54.90 52.44 59.02 63.51 62.73 60.78 61.68 60.68 60.30 60.27 60.08 60.68 61.59 62.86 63.44 66.10 68.06 69.61 70.61 73.42 75.04 73.79 74.43 74.60
47.33 49.49 42.64 51.16 56.58 56.01 54.20 55.02 56.78 57.27 58.65 61.88 63.02 61.73 60.94 62.06 61.04 59.26 59.32 60.34 60.49 61.97 64.27 66.68 68.42 69.46 70.92 70.84 74.19 74.57 74.17 73.65
46.12 46.00 48.48 49.44 52.61 53.24 52.20 52.99 55.85 57.11 58.19 63.13 62.72 61.09 59.04 61.57 62.06 61.01 60.15 60.22 62.12 63.24 63.08 65.11 65.93 68.52 70.48 71.55 72.38 73.49 73.25 74.07
48.50 44.00 41.73 49.88 56.42 58.12 56.27 48.48 56.46 59.18 59.33 61.42 62.69 58.72 58.07 61.60 62.83 62.41 62.34 62.71 63.50 64.71 64.31 64.18 64.06 66.67 69.92 71.13 70.83 70.97 72.24 72.46
47.84 45.90 48.30 55.52 57.63 57.83 46.73 51.78 60.84 60.45 61.83 62.56 61.20 62.55 62.61 63.49 62.83 63.67 64.09 63.89 64.88 65.24 63.91 62.57 62.19 68.04 68.70 68.92 68.24 70.51 72.24 71.98
48.06 45.62 43.12 57.21 55.90 49.67 58.36 61.04 62.22 61.98 62.32 61.59 63.44 62.30 62.30 62.70 63.09 63.52 63.73 64.14 64.40 63.76 63.77 64.43 63.30 62.57 63.50 63.59 66.08 68.04 69.09 68.02
50.07 50.19 57.85 58.60 56.89 59.36 59.86 60.07 61.24 63.31 63.76 64.48 62.75 61.50 62.37 62.29 62.40 62.87 62.98 62.86 63.70 63.12 63.25 64.23 64.76 64.21 60.78 60.56 62.56 64.85 64.32 63.03
52.17 53.45 54.77 56.59 58.14 58.69 59.65 60.25 61.94 63.35 63.05 62.62 61.56 61.95 61.39 61.88 61.00 60.91 62.59 61.77 61.93 62.15 62.43 62.44 64.01 63.51 62.32 61.47 60.91 60.47 60.27 59.66
53.13 54.12 55.55 57.39 58.30 58.24 59.99 61.41 62.55 63.53 63.07 62.41 62.41 61.39 61.37 60.80 61.22 60.72 61.72 61.48 61.70 60.80 61.08 61.75 62.58 63.24 62.81 60.76 61.52 59.60 58.53 57.94
50.28 55.38 56.89 56.85 58.90 59.95 59.76 61.67 62.83 62.64 61.94 61.89 61.74 61.01 60.95 60.61 61.05 61.40 60.91 60.69 60.76 61.43 61.46 61.73 61.77 61.73 61.89 63.49 62.86 59.82 57.44 57.94
55.09 57.63 58.14 59.19 59.62 61.08 61.33 62.69 63.17 62.74 61.88 60.77 61.50 61.40 61.18 59.81 59.07 58.29 60.41 60.61 60.65 60.48 60.67 60.62 60.48 60.38 62.11 62.88 60.22 59.04 58.19 57.94